<?xml version="1.0" encoding="UTF-8" standalone="no" ?>
<gpx xmlns="http://www.topografix.com/GPX/1/1" xmlns:xsi="http://www.w3.org/2001/XMLSchema-instance" xsi:schemaLocation="http://www.topografix.com/GPX/1/1 http://www.topografix.com/GPX/1/1/gpx.xsd" version="1.1" creator="VisuGPX - https://www.visugpx.com">
  <metadata>
    <name>134SG72-7969992-</name>
    <desc><![CDATA[12-19
]]></desc>
  </metadata>
  <trk>
    <name><![CDATA[134SG72-7969992-]]></name>
    <trkseg>
      <trkpt lat="46.69901" lon="-1.93381">
        <ele>5</ele>
        <time>2018-04-27T14:27:18Z</time>
      </trkpt>
      <trkpt lat="46.69813" lon="-1.9341">
        <ele>5</ele>
        <time>2018-04-27T14:28:18Z</time>
      </trkpt>
      <trkpt lat="46.69793" lon="-1.9342">
        <ele>5</ele>
        <time>2018-04-27T14:29:18Z</time>
      </trkpt>
      <trkpt lat="46.69793" lon="-1.93426">
        <ele>5</ele>
        <time>2018-04-27T14:30:18Z</time>
      </trkpt>
      <trkpt lat="46.6979" lon="-1.9343">
        <ele>5</ele>
        <time>2018-04-27T14:31:18Z</time>
      </trkpt>
      <trkpt lat="46.69785" lon="-1.93429">
        <ele>5</ele>
        <time>2018-04-27T14:32:18Z</time>
      </trkpt>
      <trkpt lat="46.69784" lon="-1.93422">
        <ele>5</ele>
        <time>2018-04-27T14:33:18Z</time>
      </trkpt>
      <trkpt lat="46.69777" lon="-1.93421">
        <ele>5</ele>
        <time>2018-04-27T14:34:18Z</time>
      </trkpt>
      <trkpt lat="46.69709" lon="-1.93437">
        <ele>5</ele>
        <time>2018-04-27T14:35:18Z</time>
      </trkpt>
      <trkpt lat="46.69684" lon="-1.93436">
        <ele>5</ele>
        <time>2018-04-27T14:36:18Z</time>
      </trkpt>
      <trkpt lat="46.69667" lon="-1.93431">
        <ele>5</ele>
        <time>2018-04-27T14:37:18Z</time>
      </trkpt>
      <trkpt lat="46.69631" lon="-1.93425">
        <ele>4</ele>
        <time>2018-04-27T14:38:18Z</time>
      </trkpt>
      <trkpt lat="46.69631" lon="-1.93428">
        <ele>4</ele>
        <time>2018-04-27T14:39:18Z</time>
      </trkpt>
      <trkpt lat="46.69627" lon="-1.93435">
        <ele>4</ele>
        <time>2018-04-27T14:40:18Z</time>
      </trkpt>
      <trkpt lat="46.69623" lon="-1.93436">
        <ele>4</ele>
        <time>2018-04-27T14:41:18Z</time>
      </trkpt>
      <trkpt lat="46.69619" lon="-1.93434">
        <ele>4</ele>
        <time>2018-04-27T14:42:18Z</time>
      </trkpt>
      <trkpt lat="46.69617" lon="-1.93422">
        <ele>4</ele>
        <time>2018-04-27T14:43:18Z</time>
      </trkpt>
      <trkpt lat="46.69607" lon="-1.93417">
        <ele>4</ele>
        <time>2018-04-27T14:44:18Z</time>
      </trkpt>
      <trkpt lat="46.69605" lon="-1.93424">
        <ele>4</ele>
        <time>2018-04-27T14:45:18Z</time>
      </trkpt>
      <trkpt lat="46.69586" lon="-1.93414">
        <ele>4</ele>
        <time>2018-04-27T14:46:18Z</time>
      </trkpt>
      <trkpt lat="46.69579" lon="-1.93414">
        <ele>4</ele>
        <time>2018-04-27T14:47:18Z</time>
      </trkpt>
      <trkpt lat="46.69525" lon="-1.9339">
        <ele>4</ele>
        <time>2018-04-27T14:48:18Z</time>
      </trkpt>
      <trkpt lat="46.69517" lon="-1.93383">
        <ele>4</ele>
        <time>2018-04-27T14:49:18Z</time>
      </trkpt>
      <trkpt lat="46.69413" lon="-1.93343">
        <ele>4</ele>
        <time>2018-04-27T14:50:18Z</time>
      </trkpt>
      <trkpt lat="46.69401" lon="-1.93341">
        <ele>4</ele>
        <time>2018-04-27T14:51:18Z</time>
      </trkpt>
      <trkpt lat="46.69395" lon="-1.93344">
        <ele>4</ele>
        <time>2018-04-27T14:52:18Z</time>
      </trkpt>
      <trkpt lat="46.6939" lon="-1.93352">
        <ele>4</ele>
        <time>2018-04-27T14:53:18Z</time>
      </trkpt>
      <trkpt lat="46.69385" lon="-1.93353">
        <ele>4</ele>
        <time>2018-04-27T14:54:18Z</time>
      </trkpt>
      <trkpt lat="46.69381" lon="-1.93351">
        <ele>4</ele>
        <time>2018-04-27T14:55:18Z</time>
      </trkpt>
      <trkpt lat="46.69372" lon="-1.93338">
        <ele>4</ele>
        <time>2018-04-27T14:56:18Z</time>
      </trkpt>
      <trkpt lat="46.69278" lon="-1.93322">
        <ele>3</ele>
        <time>2018-04-27T14:57:18Z</time>
      </trkpt>
      <trkpt lat="46.69225" lon="-1.93316">
        <ele>3</ele>
        <time>2018-04-27T14:58:18Z</time>
      </trkpt>
      <trkpt lat="46.69219" lon="-1.93318">
        <ele>3</ele>
        <time>2018-04-27T14:59:18Z</time>
      </trkpt>
      <trkpt lat="46.69196" lon="-1.93314">
        <ele>3</ele>
        <time>2018-04-27T15:00:18Z</time>
      </trkpt>
      <trkpt lat="46.69187" lon="-1.93319">
        <ele>3</ele>
        <time>2018-04-27T15:01:18Z</time>
      </trkpt>
      <trkpt lat="46.69181" lon="-1.93319">
        <ele>3</ele>
        <time>2018-04-27T15:02:18Z</time>
      </trkpt>
      <trkpt lat="46.69173" lon="-1.93325">
        <ele>3</ele>
        <time>2018-04-27T15:03:18Z</time>
      </trkpt>
      <trkpt lat="46.69168" lon="-1.93322">
        <ele>3</ele>
        <time>2018-04-27T15:04:18Z</time>
      </trkpt>
      <trkpt lat="46.69171" lon="-1.93311">
        <ele>3</ele>
        <time>2018-04-27T15:05:18Z</time>
      </trkpt>
      <trkpt lat="46.69166" lon="-1.93304">
        <ele>3</ele>
        <time>2018-04-27T15:06:18Z</time>
      </trkpt>
      <trkpt lat="46.69165" lon="-1.93297">
        <ele>3</ele>
        <time>2018-04-27T15:07:18Z</time>
      </trkpt>
      <trkpt lat="46.69167" lon="-1.9329">
        <ele>2</ele>
        <time>2018-04-27T15:08:18Z</time>
      </trkpt>
      <trkpt lat="46.6917" lon="-1.93287">
        <ele>2</ele>
        <time>2018-04-27T15:09:18Z</time>
      </trkpt>
      <trkpt lat="46.69167" lon="-1.93278">
        <ele>2</ele>
        <time>2018-04-27T15:10:18Z</time>
      </trkpt>
      <trkpt lat="46.69167" lon="-1.93259">
        <ele>2</ele>
        <time>2018-04-27T15:11:18Z</time>
      </trkpt>
      <trkpt lat="46.6918" lon="-1.93174">
        <ele>4</ele>
        <time>2018-04-27T15:12:18Z</time>
      </trkpt>
      <trkpt lat="46.6918" lon="-1.93174">
        <ele>4</ele>
        <time>2018-04-27T15:13:18Z</time>
      </trkpt>
      <trkpt lat="46.69183" lon="-1.93152">
        <ele>4</ele>
        <time>2018-04-27T15:14:18Z</time>
      </trkpt>
      <trkpt lat="46.69189" lon="-1.93132">
        <ele>4</ele>
        <time>2018-04-27T15:15:18Z</time>
      </trkpt>
      <trkpt lat="46.69223" lon="-1.93056">
        <ele>5</ele>
        <time>2018-04-27T15:16:18Z</time>
      </trkpt>
      <trkpt lat="46.69119" lon="-1.92964">
        <ele>4</ele>
        <time>2018-04-27T15:17:18Z</time>
      </trkpt>
      <trkpt lat="46.69068" lon="-1.92911">
        <ele>4</ele>
        <time>2018-04-27T15:18:18Z</time>
      </trkpt>
      <trkpt lat="46.68951" lon="-1.92754">
        <ele>4</ele>
        <time>2018-04-27T15:19:18Z</time>
      </trkpt>
      <trkpt lat="46.68936" lon="-1.92742">
        <ele>4</ele>
        <time>2018-04-27T15:20:18Z</time>
      </trkpt>
      <trkpt lat="46.68924" lon="-1.92732">
        <ele>4</ele>
        <time>2018-04-27T15:21:18Z</time>
      </trkpt>
      <trkpt lat="46.68851" lon="-1.92699">
        <ele>6</ele>
        <time>2018-04-27T15:22:18Z</time>
      </trkpt>
      <trkpt lat="46.68845" lon="-1.92703">
        <ele>7</ele>
        <time>2018-04-27T15:23:18Z</time>
      </trkpt>
      <trkpt lat="46.6884" lon="-1.92698">
        <ele>7</ele>
        <time>2018-04-27T15:24:18Z</time>
      </trkpt>
      <trkpt lat="46.68821" lon="-1.92705">
        <ele>7</ele>
        <time>2018-04-27T15:25:18Z</time>
      </trkpt>
      <trkpt lat="46.68819" lon="-1.92704">
        <ele>7</ele>
        <time>2018-04-27T15:26:18Z</time>
      </trkpt>
      <trkpt lat="46.68817" lon="-1.92696">
        <ele>7</ele>
        <time>2018-04-27T15:27:18Z</time>
      </trkpt>
      <trkpt lat="46.68817" lon="-1.92693">
        <ele>7</ele>
        <time>2018-04-27T15:28:18Z</time>
      </trkpt>
      <trkpt lat="46.68815" lon="-1.92691">
        <ele>7</ele>
        <time>2018-04-27T15:29:18Z</time>
      </trkpt>
      <trkpt lat="46.68774" lon="-1.92675">
        <ele>8</ele>
        <time>2018-04-27T15:30:18Z</time>
      </trkpt>
      <trkpt lat="46.68733" lon="-1.92655">
        <ele>8</ele>
        <time>2018-04-27T15:31:18Z</time>
      </trkpt>
      <trkpt lat="46.6871" lon="-1.9264">
        <ele>9</ele>
        <time>2018-04-27T15:32:18Z</time>
      </trkpt>
      <trkpt lat="46.6871" lon="-1.9264">
        <ele>9</ele>
        <time>2018-04-27T15:33:18Z</time>
      </trkpt>
      <trkpt lat="46.68666" lon="-1.92613">
        <ele>10</ele>
        <time>2018-04-27T15:34:18Z</time>
      </trkpt>
      <trkpt lat="46.68626" lon="-1.92579">
        <ele>10</ele>
        <time>2018-04-27T15:35:18Z</time>
      </trkpt>
      <trkpt lat="46.68533" lon="-1.92462">
        <ele>10</ele>
        <time>2018-04-27T15:36:18Z</time>
      </trkpt>
      <trkpt lat="46.68495" lon="-1.92421">
        <ele>10</ele>
        <time>2018-04-27T15:37:18Z</time>
      </trkpt>
      <trkpt lat="46.68477" lon="-1.92411">
        <ele>10</ele>
        <time>2018-04-27T15:38:18Z</time>
      </trkpt>
      <trkpt lat="46.68452" lon="-1.92402">
        <ele>10</ele>
        <time>2018-04-27T15:39:18Z</time>
      </trkpt>
      <trkpt lat="46.68415" lon="-1.92395">
        <ele>10</ele>
        <time>2018-04-27T15:40:18Z</time>
      </trkpt>
      <trkpt lat="46.68401" lon="-1.92386">
        <ele>10</ele>
        <time>2018-04-27T15:41:18Z</time>
      </trkpt>
      <trkpt lat="46.68387" lon="-1.92365">
        <ele>10</ele>
        <time>2018-04-27T15:42:18Z</time>
      </trkpt>
      <trkpt lat="46.68304" lon="-1.92221">
        <ele>9</ele>
        <time>2018-04-27T15:43:18Z</time>
      </trkpt>
      <trkpt lat="46.68253" lon="-1.92142">
        <ele>7</ele>
        <time>2018-04-27T15:44:18Z</time>
      </trkpt>
      <trkpt lat="46.68157" lon="-1.92004">
        <ele>8</ele>
        <time>2018-04-27T15:45:18Z</time>
      </trkpt>
      <trkpt lat="46.67536" lon="-1.91126">
        <ele>5</ele>
        <time>2018-04-27T15:46:18Z</time>
      </trkpt>
      <trkpt lat="46.67454" lon="-1.91009">
        <ele>4</ele>
        <time>2018-04-27T15:47:18Z</time>
      </trkpt>
      <trkpt lat="46.67439" lon="-1.90982">
        <ele>3</ele>
        <time>2018-04-27T15:48:18Z</time>
      </trkpt>
      <trkpt lat="46.67432" lon="-1.90973">
        <ele>3</ele>
        <time>2018-04-27T15:49:18Z</time>
      </trkpt>
      <trkpt lat="46.67425" lon="-1.90968">
        <ele>3</ele>
        <time>2018-04-27T15:50:18Z</time>
      </trkpt>
      <trkpt lat="46.67419" lon="-1.90958">
        <ele>3</ele>
        <time>2018-04-27T15:51:18Z</time>
      </trkpt>
      <trkpt lat="46.67416" lon="-1.90944">
        <ele>3</ele>
        <time>2018-04-27T15:52:18Z</time>
      </trkpt>
      <trkpt lat="46.67412" lon="-1.90936">
        <ele>3</ele>
        <time>2018-04-27T15:53:18Z</time>
      </trkpt>
      <trkpt lat="46.67311" lon="-1.9081">
        <ele>2</ele>
        <time>2018-04-27T15:54:18Z</time>
      </trkpt>
      <trkpt lat="46.67116" lon="-1.90534">
        <ele>5</ele>
        <time>2018-04-27T15:55:18Z</time>
      </trkpt>
      <trkpt lat="46.67054" lon="-1.90455">
        <ele>5</ele>
        <time>2018-04-27T15:56:18Z</time>
      </trkpt>
      <trkpt lat="46.66982" lon="-1.90359">
        <ele>5</ele>
        <time>2018-04-27T15:57:18Z</time>
      </trkpt>
      <trkpt lat="46.66979" lon="-1.90358">
        <ele>5</ele>
        <time>2018-04-27T15:58:18Z</time>
      </trkpt>
      <trkpt lat="46.6697" lon="-1.9035">
        <ele>5</ele>
        <time>2018-04-27T15:59:18Z</time>
      </trkpt>
      <trkpt lat="46.66966" lon="-1.9034">
        <ele>5</ele>
        <time>2018-04-27T16:00:18Z</time>
      </trkpt>
      <trkpt lat="46.66965" lon="-1.90327">
        <ele>5</ele>
        <time>2018-04-27T16:01:18Z</time>
      </trkpt>
      <trkpt lat="46.66969" lon="-1.90314">
        <ele>5</ele>
        <time>2018-04-27T16:02:18Z</time>
      </trkpt>
      <trkpt lat="46.66979" lon="-1.90305">
        <ele>6</ele>
        <time>2018-04-27T16:03:18Z</time>
      </trkpt>
      <trkpt lat="46.66984" lon="-1.90291">
        <ele>6</ele>
        <time>2018-04-27T16:04:18Z</time>
      </trkpt>
      <trkpt lat="46.6699" lon="-1.90268">
        <ele>7</ele>
        <time>2018-04-27T16:05:18Z</time>
      </trkpt>
      <trkpt lat="46.66962" lon="-1.90062">
        <ele>10</ele>
        <time>2018-04-27T16:06:18Z</time>
      </trkpt>
      <trkpt lat="46.66962" lon="-1.90062">
        <ele>10</ele>
        <time>2018-04-27T16:07:18Z</time>
      </trkpt>
      <trkpt lat="46.66889" lon="-1.89501">
        <ele>12</ele>
        <time>2018-04-27T16:08:18Z</time>
      </trkpt>
      <trkpt lat="46.66885" lon="-1.89452">
        <ele>12</ele>
        <time>2018-04-27T16:09:18Z</time>
      </trkpt>
      <trkpt lat="46.66884" lon="-1.89425">
        <ele>12</ele>
        <time>2018-04-27T16:10:18Z</time>
      </trkpt>
      <trkpt lat="46.66888" lon="-1.89386">
        <ele>12</ele>
        <time>2018-04-27T16:11:18Z</time>
      </trkpt>
      <trkpt lat="46.66899" lon="-1.89335">
        <ele>11</ele>
        <time>2018-04-27T16:12:18Z</time>
      </trkpt>
      <trkpt lat="46.66913" lon="-1.89291">
        <ele>11</ele>
        <time>2018-04-27T16:13:18Z</time>
      </trkpt>
      <trkpt lat="46.6691" lon="-1.89287">
        <ele>11</ele>
        <time>2018-04-27T16:14:18Z</time>
      </trkpt>
      <trkpt lat="46.66907" lon="-1.89277">
        <ele>11</ele>
        <time>2018-04-27T16:15:18Z</time>
      </trkpt>
      <trkpt lat="46.66908" lon="-1.89271">
        <ele>11</ele>
        <time>2018-04-27T16:16:18Z</time>
      </trkpt>
      <trkpt lat="46.66912" lon="-1.89263">
        <ele>11</ele>
        <time>2018-04-27T16:17:18Z</time>
      </trkpt>
      <trkpt lat="46.66919" lon="-1.89261">
        <ele>11</ele>
        <time>2018-04-27T16:18:18Z</time>
      </trkpt>
      <trkpt lat="46.66923" lon="-1.89262">
        <ele>11</ele>
        <time>2018-04-27T16:19:18Z</time>
      </trkpt>
      <trkpt lat="46.66979" lon="-1.89091">
        <ele>9</ele>
        <time>2018-04-27T16:20:18Z</time>
      </trkpt>
      <trkpt lat="46.66992" lon="-1.89065">
        <ele>9</ele>
        <time>2018-04-27T16:21:18Z</time>
      </trkpt>
      <trkpt lat="46.66996" lon="-1.89053">
        <ele>8</ele>
        <time>2018-04-27T16:22:18Z</time>
      </trkpt>
      <trkpt lat="46.66999" lon="-1.8903">
        <ele>8</ele>
        <time>2018-04-27T16:23:18Z</time>
      </trkpt>
      <trkpt lat="46.66999" lon="-1.89002">
        <ele>7</ele>
        <time>2018-04-27T16:24:18Z</time>
      </trkpt>
      <trkpt lat="46.67036" lon="-1.88833">
        <ele>10</ele>
        <time>2018-04-27T16:25:18Z</time>
      </trkpt>
      <trkpt lat="46.67055" lon="-1.88753">
        <ele>11</ele>
        <time>2018-04-27T16:26:18Z</time>
      </trkpt>
      <trkpt lat="46.67051" lon="-1.88751">
        <ele>11</ele>
        <time>2018-04-27T16:27:18Z</time>
      </trkpt>
      <trkpt lat="46.67047" lon="-1.88742">
        <ele>11</ele>
        <time>2018-04-27T16:28:18Z</time>
      </trkpt>
      <trkpt lat="46.67047" lon="-1.88736">
        <ele>11</ele>
        <time>2018-04-27T16:29:18Z</time>
      </trkpt>
      <trkpt lat="46.67052" lon="-1.88727">
        <ele>11</ele>
        <time>2018-04-27T16:30:18Z</time>
      </trkpt>
      <trkpt lat="46.67056" lon="-1.88725">
        <ele>11</ele>
        <time>2018-04-27T16:31:18Z</time>
      </trkpt>
      <trkpt lat="46.6706" lon="-1.88725">
        <ele>11</ele>
        <time>2018-04-27T16:32:18Z</time>
      </trkpt>
      <trkpt lat="46.67132" lon="-1.88409">
        <ele>10</ele>
        <time>2018-04-27T16:33:18Z</time>
      </trkpt>
      <trkpt lat="46.67137" lon="-1.88372">
        <ele>9</ele>
        <time>2018-04-27T16:34:18Z</time>
      </trkpt>
      <trkpt lat="46.67138" lon="-1.88325">
        <ele>9</ele>
        <time>2018-04-27T16:35:18Z</time>
      </trkpt>
      <trkpt lat="46.6714" lon="-1.88295">
        <ele>9</ele>
        <time>2018-04-27T16:36:18Z</time>
      </trkpt>
      <trkpt lat="46.6716" lon="-1.88223">
        <ele>8</ele>
        <time>2018-04-27T16:37:18Z</time>
      </trkpt>
      <trkpt lat="46.67156" lon="-1.88218">
        <ele>8</ele>
        <time>2018-04-27T16:38:18Z</time>
      </trkpt>
      <trkpt lat="46.67155" lon="-1.88208">
        <ele>7</ele>
        <time>2018-04-27T16:39:18Z</time>
      </trkpt>
      <trkpt lat="46.67157" lon="-1.88201">
        <ele>7</ele>
        <time>2018-04-27T16:40:18Z</time>
      </trkpt>
      <trkpt lat="46.67161" lon="-1.88197">
        <ele>7</ele>
        <time>2018-04-27T16:41:18Z</time>
      </trkpt>
      <trkpt lat="46.67168" lon="-1.88197">
        <ele>7</ele>
        <time>2018-04-27T16:42:18Z</time>
      </trkpt>
      <trkpt lat="46.67177" lon="-1.88153">
        <ele>8</ele>
        <time>2018-04-27T16:43:18Z</time>
      </trkpt>
      <trkpt lat="46.67184" lon="-1.88096">
        <ele>9</ele>
        <time>2018-04-27T16:44:18Z</time>
      </trkpt>
      <trkpt lat="46.67212" lon="-1.87901">
        <ele>10</ele>
        <time>2018-04-27T16:45:18Z</time>
      </trkpt>
      <trkpt lat="46.67215" lon="-1.87696">
        <ele>11</ele>
        <time>2018-04-27T16:46:18Z</time>
      </trkpt>
      <trkpt lat="46.6722" lon="-1.87617">
        <ele>11</ele>
        <time>2018-04-27T16:47:18Z</time>
      </trkpt>
      <trkpt lat="46.67248" lon="-1.87379">
        <ele>11</ele>
        <time>2018-04-27T16:48:18Z</time>
      </trkpt>
      <trkpt lat="46.67269" lon="-1.8711">
        <ele>9</ele>
        <time>2018-04-27T16:49:18Z</time>
      </trkpt>
      <trkpt lat="46.67271" lon="-1.87033">
        <ele>8</ele>
        <time>2018-04-27T16:50:18Z</time>
      </trkpt>
      <trkpt lat="46.6727" lon="-1.87011">
        <ele>8</ele>
        <time>2018-04-27T16:51:18Z</time>
      </trkpt>
      <trkpt lat="46.67264" lon="-1.86989">
        <ele>7</ele>
        <time>2018-04-27T16:52:18Z</time>
      </trkpt>
      <trkpt lat="46.67253" lon="-1.86963">
        <ele>5</ele>
        <time>2018-04-27T16:53:18Z</time>
      </trkpt>
      <trkpt lat="46.67181" lon="-1.86824">
        <ele>4</ele>
        <time>2018-04-27T16:54:18Z</time>
      </trkpt>
      <trkpt lat="46.67172" lon="-1.86801">
        <ele>4</ele>
        <time>2018-04-27T16:55:18Z</time>
      </trkpt>
      <trkpt lat="46.67168" lon="-1.86784">
        <ele>5</ele>
        <time>2018-04-27T16:56:18Z</time>
      </trkpt>
      <trkpt lat="46.67165" lon="-1.86751">
        <ele>5</ele>
        <time>2018-04-27T16:57:18Z</time>
      </trkpt>
      <trkpt lat="46.67164" lon="-1.86733">
        <ele>6</ele>
        <time>2018-04-27T16:58:18Z</time>
      </trkpt>
      <trkpt lat="46.67166" lon="-1.8668">
        <ele>8</ele>
        <time>2018-04-27T16:59:18Z</time>
      </trkpt>
      <trkpt lat="46.6717" lon="-1.86646">
        <ele>8</ele>
        <time>2018-04-27T17:00:18Z</time>
      </trkpt>
      <trkpt lat="46.67181" lon="-1.866">
        <ele>8</ele>
        <time>2018-04-27T17:01:18Z</time>
      </trkpt>
      <trkpt lat="46.67226" lon="-1.86451">
        <ele>10</ele>
        <time>2018-04-27T17:02:18Z</time>
      </trkpt>
      <trkpt lat="46.67236" lon="-1.86403">
        <ele>10</ele>
        <time>2018-04-27T17:03:18Z</time>
      </trkpt>
      <trkpt lat="46.67241" lon="-1.86351">
        <ele>10</ele>
        <time>2018-04-27T17:04:18Z</time>
      </trkpt>
      <trkpt lat="46.67245" lon="-1.86265">
        <ele>10</ele>
        <time>2018-04-27T17:05:18Z</time>
      </trkpt>
      <trkpt lat="46.67248" lon="-1.86246">
        <ele>10</ele>
        <time>2018-04-27T17:06:18Z</time>
      </trkpt>
      <trkpt lat="46.67251" lon="-1.86231">
        <ele>11</ele>
        <time>2018-04-27T17:07:18Z</time>
      </trkpt>
      <trkpt lat="46.67275" lon="-1.86168">
        <ele>12</ele>
        <time>2018-04-27T17:08:18Z</time>
      </trkpt>
      <trkpt lat="46.67286" lon="-1.86119">
        <ele>12</ele>
        <time>2018-04-27T17:09:18Z</time>
      </trkpt>
      <trkpt lat="46.67298" lon="-1.86035">
        <ele>14</ele>
        <time>2018-04-27T17:10:18Z</time>
      </trkpt>
      <trkpt lat="46.67301" lon="-1.85999">
        <ele>15</ele>
        <time>2018-04-27T17:11:18Z</time>
      </trkpt>
      <trkpt lat="46.67304" lon="-1.85932">
        <ele>15</ele>
        <time>2018-04-27T17:12:18Z</time>
      </trkpt>
      <trkpt lat="46.67302" lon="-1.85841">
        <ele>16</ele>
        <time>2018-04-27T17:13:18Z</time>
      </trkpt>
      <trkpt lat="46.67296" lon="-1.85758">
        <ele>16</ele>
        <time>2018-04-27T17:14:18Z</time>
      </trkpt>
      <trkpt lat="46.67263" lon="-1.85355">
        <ele>19</ele>
        <time>2018-04-27T17:15:18Z</time>
      </trkpt>
      <trkpt lat="46.67255" lon="-1.85306">
        <ele>20</ele>
        <time>2018-04-27T17:16:18Z</time>
      </trkpt>
      <trkpt lat="46.67175" lon="-1.85022">
        <ele>18</ele>
        <time>2018-04-27T17:17:18Z</time>
      </trkpt>
      <trkpt lat="46.67164" lon="-1.84956">
        <ele>18</ele>
        <time>2018-04-27T17:18:18Z</time>
      </trkpt>
      <trkpt lat="46.67162" lon="-1.8493">
        <ele>18</ele>
        <time>2018-04-27T17:19:18Z</time>
      </trkpt>
      <trkpt lat="46.67162" lon="-1.84895">
        <ele>18</ele>
        <time>2018-04-27T17:20:18Z</time>
      </trkpt>
      <trkpt lat="46.67166" lon="-1.84842">
        <ele>18</ele>
        <time>2018-04-27T17:21:18Z</time>
      </trkpt>
      <trkpt lat="46.67247" lon="-1.84217">
        <ele>21</ele>
        <time>2018-04-27T17:22:18Z</time>
      </trkpt>
      <trkpt lat="46.67257" lon="-1.83916">
        <ele>23</ele>
        <time>2018-04-27T17:23:18Z</time>
      </trkpt>
      <trkpt lat="46.67255" lon="-1.83879">
        <ele>23</ele>
        <time>2018-04-27T17:24:18Z</time>
      </trkpt>
      <trkpt lat="46.67254" lon="-1.83853">
        <ele>23</ele>
        <time>2018-04-27T17:25:18Z</time>
      </trkpt>
      <trkpt lat="46.67238" lon="-1.83711">
        <ele>22</ele>
        <time>2018-04-27T17:26:18Z</time>
      </trkpt>
      <trkpt lat="46.67224" lon="-1.83555">
        <ele>20</ele>
        <time>2018-04-27T17:27:18Z</time>
      </trkpt>
      <trkpt lat="46.67203" lon="-1.83472">
        <ele>21</ele>
        <time>2018-04-27T17:28:18Z</time>
      </trkpt>
      <trkpt lat="46.67174" lon="-1.83378">
        <ele>22</ele>
        <time>2018-04-27T17:29:18Z</time>
      </trkpt>
      <trkpt lat="46.67149" lon="-1.83307">
        <ele>22</ele>
        <time>2018-04-27T17:30:18Z</time>
      </trkpt>
      <trkpt lat="46.6712" lon="-1.83235">
        <ele>21</ele>
        <time>2018-04-27T17:31:18Z</time>
      </trkpt>
      <trkpt lat="46.67039" lon="-1.83063">
        <ele>18</ele>
        <time>2018-04-27T17:32:18Z</time>
      </trkpt>
      <trkpt lat="46.67001" lon="-1.82932">
        <ele>18</ele>
        <time>2018-04-27T17:33:18Z</time>
      </trkpt>
      <trkpt lat="46.66996" lon="-1.82896">
        <ele>18</ele>
        <time>2018-04-27T17:34:18Z</time>
      </trkpt>
      <trkpt lat="46.66995" lon="-1.82863">
        <ele>18</ele>
        <time>2018-04-27T17:35:18Z</time>
      </trkpt>
      <trkpt lat="46.66998" lon="-1.82847">
        <ele>18</ele>
        <time>2018-04-27T17:36:18Z</time>
      </trkpt>
      <trkpt lat="46.67028" lon="-1.82763">
        <ele>18</ele>
        <time>2018-04-27T17:37:18Z</time>
      </trkpt>
      <trkpt lat="46.67044" lon="-1.8269">
        <ele>21</ele>
        <time>2018-04-27T17:38:18Z</time>
      </trkpt>
      <trkpt lat="46.6706" lon="-1.82682">
        <ele>22</ele>
        <time>2018-04-27T17:39:18Z</time>
      </trkpt>
      <trkpt lat="46.67059" lon="-1.82674">
        <ele>22</ele>
        <time>2018-04-27T17:40:18Z</time>
      </trkpt>
      <trkpt lat="46.67061" lon="-1.82667">
        <ele>23</ele>
        <time>2018-04-27T17:41:18Z</time>
      </trkpt>
      <trkpt lat="46.67065" lon="-1.82662">
        <ele>23</ele>
        <time>2018-04-27T17:42:18Z</time>
      </trkpt>
      <trkpt lat="46.6707" lon="-1.8266">
        <ele>23</ele>
        <time>2018-04-27T17:43:18Z</time>
      </trkpt>
      <trkpt lat="46.67075" lon="-1.82661">
        <ele>23</ele>
        <time>2018-04-27T17:44:18Z</time>
      </trkpt>
      <trkpt lat="46.67079" lon="-1.82604">
        <ele>26</ele>
        <time>2018-04-27T17:45:18Z</time>
      </trkpt>
      <trkpt lat="46.67092" lon="-1.82573">
        <ele>28</ele>
        <time>2018-04-27T17:46:18Z</time>
      </trkpt>
      <trkpt lat="46.6714" lon="-1.82497">
        <ele>31</ele>
        <time>2018-04-27T17:47:18Z</time>
      </trkpt>
      <trkpt lat="46.67248" lon="-1.82256">
        <ele>32</ele>
        <time>2018-04-27T17:48:18Z</time>
      </trkpt>
      <trkpt lat="46.67276" lon="-1.82183">
        <ele>32</ele>
        <time>2018-04-27T17:49:18Z</time>
      </trkpt>
      <trkpt lat="46.673" lon="-1.82112">
        <ele>32</ele>
        <time>2018-04-27T17:50:18Z</time>
      </trkpt>
      <trkpt lat="46.67325" lon="-1.82027">
        <ele>33</ele>
        <time>2018-04-27T17:51:18Z</time>
      </trkpt>
      <trkpt lat="46.67399" lon="-1.81821">
        <ele>32</ele>
        <time>2018-04-27T17:52:18Z</time>
      </trkpt>
      <trkpt lat="46.67412" lon="-1.81715">
        <ele>32</ele>
        <time>2018-04-27T17:53:18Z</time>
      </trkpt>
      <trkpt lat="46.67412" lon="-1.81715">
        <ele>32</ele>
        <time>2018-04-27T17:54:18Z</time>
      </trkpt>
      <trkpt lat="46.67428" lon="-1.81584">
        <ele>32</ele>
        <time>2018-04-27T17:55:18Z</time>
      </trkpt>
      <trkpt lat="46.67469" lon="-1.81421">
        <ele>35</ele>
        <time>2018-04-27T17:56:18Z</time>
      </trkpt>
      <trkpt lat="46.67504" lon="-1.81301">
        <ele>35</ele>
        <time>2018-04-27T17:57:18Z</time>
      </trkpt>
      <trkpt lat="46.6751" lon="-1.8106">
        <ele>31</ele>
        <time>2018-04-27T17:58:18Z</time>
      </trkpt>
      <trkpt lat="46.67534" lon="-1.80951">
        <ele>34</ele>
        <time>2018-04-27T17:59:18Z</time>
      </trkpt>
      <trkpt lat="46.67568" lon="-1.80782">
        <ele>36</ele>
        <time>2018-04-27T18:00:18Z</time>
      </trkpt>
      <trkpt lat="46.67571" lon="-1.80487">
        <ele>37</ele>
        <time>2018-04-27T18:01:18Z</time>
      </trkpt>
      <trkpt lat="46.67567" lon="-1.80309">
        <ele>37</ele>
        <time>2018-04-27T18:02:18Z</time>
      </trkpt>
      <trkpt lat="46.67549" lon="-1.80167">
        <ele>37</ele>
        <time>2018-04-27T18:03:18Z</time>
      </trkpt>
      <trkpt lat="46.67548" lon="-1.80079">
        <ele>38</ele>
        <time>2018-04-27T18:04:18Z</time>
      </trkpt>
      <trkpt lat="46.6756" lon="-1.7996">
        <ele>40</ele>
        <time>2018-04-27T18:05:18Z</time>
      </trkpt>
      <trkpt lat="46.67595" lon="-1.79847">
        <ele>42</ele>
        <time>2018-04-27T18:06:18Z</time>
      </trkpt>
      <trkpt lat="46.67606" lon="-1.79702">
        <ele>41</ele>
        <time>2018-04-27T18:07:18Z</time>
      </trkpt>
      <trkpt lat="46.67629" lon="-1.79606">
        <ele>40</ele>
        <time>2018-04-27T18:08:18Z</time>
      </trkpt>
      <trkpt lat="46.67631" lon="-1.79558">
        <ele>40</ele>
        <time>2018-04-27T18:09:18Z</time>
      </trkpt>
      <trkpt lat="46.67623" lon="-1.79493">
        <ele>40</ele>
        <time>2018-04-27T18:10:18Z</time>
      </trkpt>
      <trkpt lat="46.67585" lon="-1.79399">
        <ele>41</ele>
        <time>2018-04-27T18:11:18Z</time>
      </trkpt>
      <trkpt lat="46.67578" lon="-1.79326">
        <ele>42</ele>
        <time>2018-04-27T18:12:18Z</time>
      </trkpt>
      <trkpt lat="46.67573" lon="-1.79109">
        <ele>42</ele>
        <time>2018-04-27T18:13:18Z</time>
      </trkpt>
      <trkpt lat="46.67551" lon="-1.78947">
        <ele>38</ele>
        <time>2018-04-27T18:14:18Z</time>
      </trkpt>
      <trkpt lat="46.67544" lon="-1.78914">
        <ele>37</ele>
        <time>2018-04-27T18:15:18Z</time>
      </trkpt>
      <trkpt lat="46.67472" lon="-1.78624">
        <ele>35</ele>
        <time>2018-04-27T18:16:18Z</time>
      </trkpt>
      <trkpt lat="46.67456" lon="-1.78575">
        <ele>36</ele>
        <time>2018-04-27T18:17:18Z</time>
      </trkpt>
      <trkpt lat="46.67432" lon="-1.78527">
        <ele>36</ele>
        <time>2018-04-27T18:18:18Z</time>
      </trkpt>
      <trkpt lat="46.67392" lon="-1.78436">
        <ele>37</ele>
        <time>2018-04-27T18:19:18Z</time>
      </trkpt>
      <trkpt lat="46.6737" lon="-1.78381">
        <ele>37</ele>
        <time>2018-04-27T18:20:18Z</time>
      </trkpt>
      <trkpt lat="46.67355" lon="-1.78332">
        <ele>37</ele>
        <time>2018-04-27T18:21:18Z</time>
      </trkpt>
      <trkpt lat="46.67343" lon="-1.78307">
        <ele>37</ele>
        <time>2018-04-27T18:22:18Z</time>
      </trkpt>
      <trkpt lat="46.67334" lon="-1.78296">
        <ele>36</ele>
        <time>2018-04-27T18:23:18Z</time>
      </trkpt>
      <trkpt lat="46.67321" lon="-1.78286">
        <ele>37</ele>
        <time>2018-04-27T18:24:18Z</time>
      </trkpt>
      <trkpt lat="46.67198" lon="-1.78225">
        <ele>38</ele>
        <time>2018-04-27T18:25:18Z</time>
      </trkpt>
      <trkpt lat="46.67186" lon="-1.78214">
        <ele>39</ele>
        <time>2018-04-27T18:26:18Z</time>
      </trkpt>
      <trkpt lat="46.67171" lon="-1.78155">
        <ele>40</ele>
        <time>2018-04-27T18:27:18Z</time>
      </trkpt>
      <trkpt lat="46.67163" lon="-1.78119">
        <ele>41</ele>
        <time>2018-04-27T18:28:18Z</time>
      </trkpt>
      <trkpt lat="46.67151" lon="-1.77963">
        <ele>42</ele>
        <time>2018-04-27T18:29:18Z</time>
      </trkpt>
      <trkpt lat="46.67143" lon="-1.77934">
        <ele>42</ele>
        <time>2018-04-27T18:30:18Z</time>
      </trkpt>
      <trkpt lat="46.66957" lon="-1.77549">
        <ele>46</ele>
        <time>2018-04-27T18:31:18Z</time>
      </trkpt>
      <trkpt lat="46.66956" lon="-1.77512">
        <ele>47</ele>
        <time>2018-04-27T18:32:18Z</time>
      </trkpt>
      <trkpt lat="46.67007" lon="-1.77313">
        <ele>48</ele>
        <time>2018-04-27T18:33:18Z</time>
      </trkpt>
      <trkpt lat="46.6704" lon="-1.77136">
        <ele>50</ele>
        <time>2018-04-27T18:34:18Z</time>
      </trkpt>
      <trkpt lat="46.67066" lon="-1.76949">
        <ele>52</ele>
        <time>2018-04-27T18:35:18Z</time>
      </trkpt>
      <trkpt lat="46.67111" lon="-1.76733">
        <ele>52</ele>
        <time>2018-04-27T18:36:18Z</time>
      </trkpt>
      <trkpt lat="46.67124" lon="-1.76584">
        <ele>50</ele>
        <time>2018-04-27T18:37:18Z</time>
      </trkpt>
      <trkpt lat="46.67183" lon="-1.76373">
        <ele>51</ele>
        <time>2018-04-27T18:38:18Z</time>
      </trkpt>
      <trkpt lat="46.67227" lon="-1.76279">
        <ele>51</ele>
        <time>2018-04-27T18:39:18Z</time>
      </trkpt>
      <trkpt lat="46.67254" lon="-1.76216">
        <ele>51</ele>
        <time>2018-04-27T18:40:18Z</time>
      </trkpt>
      <trkpt lat="46.67266" lon="-1.76182">
        <ele>52</ele>
        <time>2018-04-27T18:41:18Z</time>
      </trkpt>
      <trkpt lat="46.67273" lon="-1.76149">
        <ele>52</ele>
        <time>2018-04-27T18:42:18Z</time>
      </trkpt>
      <trkpt lat="46.67288" lon="-1.76021">
        <ele>52</ele>
        <time>2018-04-27T18:43:18Z</time>
      </trkpt>
      <trkpt lat="46.67302" lon="-1.75864">
        <ele>52</ele>
        <time>2018-04-27T18:44:18Z</time>
      </trkpt>
      <trkpt lat="46.67149" lon="-1.75958">
        <ele>52</ele>
        <time>2018-04-27T18:45:18Z</time>
      </trkpt>
      <trkpt lat="46.67139" lon="-1.75961">
        <ele>52</ele>
        <time>2018-04-27T18:46:18Z</time>
      </trkpt>
      <trkpt lat="46.67129" lon="-1.75959">
        <ele>52</ele>
        <time>2018-04-27T18:47:18Z</time>
      </trkpt>
      <trkpt lat="46.67117" lon="-1.75948">
        <ele>52</ele>
        <time>2018-04-27T18:48:18Z</time>
      </trkpt>
      <trkpt lat="46.67107" lon="-1.75929">
        <ele>51</ele>
        <time>2018-04-27T18:49:18Z</time>
      </trkpt>
      <trkpt lat="46.67067" lon="-1.75841">
        <ele>51</ele>
        <time>2018-04-27T18:50:18Z</time>
      </trkpt>
      <trkpt lat="46.67058" lon="-1.75796">
        <ele>51</ele>
        <time>2018-04-27T18:51:18Z</time>
      </trkpt>
      <trkpt lat="46.67053" lon="-1.75778">
        <ele>51</ele>
        <time>2018-04-27T18:52:18Z</time>
      </trkpt>
      <trkpt lat="46.67037" lon="-1.75739">
        <ele>51</ele>
        <time>2018-04-27T18:53:18Z</time>
      </trkpt>
      <trkpt lat="46.67017" lon="-1.7567">
        <ele>51</ele>
        <time>2018-04-27T18:54:18Z</time>
      </trkpt>
      <trkpt lat="46.67011" lon="-1.75655">
        <ele>50</ele>
        <time>2018-04-27T18:55:18Z</time>
      </trkpt>
      <trkpt lat="46.66998" lon="-1.75633">
        <ele>49</ele>
        <time>2018-04-27T18:56:18Z</time>
      </trkpt>
      <trkpt lat="46.66989" lon="-1.75623">
        <ele>49</ele>
        <time>2018-04-27T18:57:18Z</time>
      </trkpt>
      <trkpt lat="46.66972" lon="-1.75615">
        <ele>48</ele>
        <time>2018-04-27T18:58:18Z</time>
      </trkpt>
      <trkpt lat="46.6692" lon="-1.75606">
        <ele>48</ele>
        <time>2018-04-27T18:59:18Z</time>
      </trkpt>
      <trkpt lat="46.66892" lon="-1.75599">
        <ele>47</ele>
        <time>2018-04-27T19:00:18Z</time>
      </trkpt>
      <trkpt lat="46.66877" lon="-1.75591">
        <ele>47</ele>
        <time>2018-04-27T19:01:18Z</time>
      </trkpt>
      <trkpt lat="46.66859" lon="-1.75577">
        <ele>47</ele>
        <time>2018-04-27T19:02:18Z</time>
      </trkpt>
      <trkpt lat="46.66812" lon="-1.7553">
        <ele>45</ele>
        <time>2018-04-27T19:03:18Z</time>
      </trkpt>
      <trkpt lat="46.66796" lon="-1.75517">
        <ele>46</ele>
        <time>2018-04-27T19:04:18Z</time>
      </trkpt>
      <trkpt lat="46.66743" lon="-1.75499">
        <ele>47</ele>
        <time>2018-04-27T19:05:18Z</time>
      </trkpt>
      <trkpt lat="46.66701" lon="-1.75488">
        <ele>48</ele>
        <time>2018-04-27T19:06:18Z</time>
      </trkpt>
      <trkpt lat="46.66676" lon="-1.7549">
        <ele>49</ele>
        <time>2018-04-27T19:07:18Z</time>
      </trkpt>
      <trkpt lat="46.66623" lon="-1.75499">
        <ele>50</ele>
        <time>2018-04-27T19:08:18Z</time>
      </trkpt>
      <trkpt lat="46.66553" lon="-1.7547">
        <ele>48</ele>
        <time>2018-04-27T19:09:18Z</time>
      </trkpt>
      <trkpt lat="46.66525" lon="-1.75466">
        <ele>47</ele>
        <time>2018-04-27T19:10:18Z</time>
      </trkpt>
      <trkpt lat="46.66459" lon="-1.75479">
        <ele>39</ele>
        <time>2018-04-27T19:11:18Z</time>
      </trkpt>
      <trkpt lat="46.66418" lon="-1.75477">
        <ele>34</ele>
        <time>2018-04-27T19:12:18Z</time>
      </trkpt>
      <trkpt lat="46.66401" lon="-1.75473">
        <ele>33</ele>
        <time>2018-04-27T19:13:18Z</time>
      </trkpt>
      <trkpt lat="46.66382" lon="-1.75465">
        <ele>32</ele>
        <time>2018-04-27T19:14:18Z</time>
      </trkpt>
      <trkpt lat="46.66355" lon="-1.7545">
        <ele>31</ele>
        <time>2018-04-27T19:15:18Z</time>
      </trkpt>
      <trkpt lat="46.66344" lon="-1.75435">
        <ele>31</ele>
        <time>2018-04-27T19:16:18Z</time>
      </trkpt>
      <trkpt lat="46.66328" lon="-1.75408">
        <ele>31</ele>
        <time>2018-04-27T19:17:18Z</time>
      </trkpt>
      <trkpt lat="46.66316" lon="-1.754">
        <ele>30</ele>
        <time>2018-04-27T19:18:18Z</time>
      </trkpt>
      <trkpt lat="46.6621" lon="-1.75396">
        <ele>28</ele>
        <time>2018-04-27T19:19:18Z</time>
      </trkpt>
      <trkpt lat="46.6615" lon="-1.7539">
        <ele>26</ele>
        <time>2018-04-27T19:20:18Z</time>
      </trkpt>
      <trkpt lat="46.66043" lon="-1.75365">
        <ele>18</ele>
        <time>2018-04-27T19:21:18Z</time>
      </trkpt>
      <trkpt lat="46.66023" lon="-1.75358">
        <ele>16</ele>
        <time>2018-04-27T19:22:18Z</time>
      </trkpt>
      <trkpt lat="46.66019" lon="-1.75354">
        <ele>16</ele>
        <time>2018-04-27T19:23:18Z</time>
      </trkpt>
      <trkpt lat="46.66011" lon="-1.75343">
        <ele>16</ele>
        <time>2018-04-27T19:24:18Z</time>
      </trkpt>
      <trkpt lat="46.66007" lon="-1.7533">
        <ele>16</ele>
        <time>2018-04-27T19:25:18Z</time>
      </trkpt>
      <trkpt lat="46.66008" lon="-1.75308">
        <ele>16</ele>
        <time>2018-04-27T19:26:18Z</time>
      </trkpt>
      <trkpt lat="46.66011" lon="-1.75298">
        <ele>16</ele>
        <time>2018-04-27T19:27:18Z</time>
      </trkpt>
      <trkpt lat="46.66146" lon="-1.7506">
        <ele>14</ele>
        <time>2018-04-27T19:28:18Z</time>
      </trkpt>
      <trkpt lat="46.662" lon="-1.7497">
        <ele>16</ele>
        <time>2018-04-27T19:29:18Z</time>
      </trkpt>
      <trkpt lat="46.66208" lon="-1.74947">
        <ele>16</ele>
        <time>2018-04-27T19:30:18Z</time>
      </trkpt>
      <trkpt lat="46.6621" lon="-1.74927">
        <ele>17</ele>
        <time>2018-04-27T19:31:18Z</time>
      </trkpt>
      <trkpt lat="46.66194" lon="-1.74869">
        <ele>18</ele>
        <time>2018-04-27T19:32:18Z</time>
      </trkpt>
      <trkpt lat="46.66186" lon="-1.74827">
        <ele>18</ele>
        <time>2018-04-27T19:33:18Z</time>
      </trkpt>
      <trkpt lat="46.66162" lon="-1.74829">
        <ele>20</ele>
        <time>2018-04-27T19:34:18Z</time>
      </trkpt>
      <trkpt lat="46.66114" lon="-1.74825">
        <ele>23</ele>
        <time>2018-04-27T19:35:18Z</time>
      </trkpt>
      <trkpt lat="46.66042" lon="-1.74795">
        <ele>27</ele>
        <time>2018-04-27T19:36:18Z</time>
      </trkpt>
      <trkpt lat="46.65964" lon="-1.74754">
        <ele>34</ele>
        <time>2018-04-27T19:37:18Z</time>
      </trkpt>
      <trkpt lat="46.65922" lon="-1.74722">
        <ele>38</ele>
        <time>2018-04-27T19:38:18Z</time>
      </trkpt>
      <trkpt lat="46.65897" lon="-1.74699">
        <ele>39</ele>
        <time>2018-04-27T19:39:18Z</time>
      </trkpt>
      <trkpt lat="46.65876" lon="-1.74671">
        <ele>41</ele>
        <time>2018-04-27T19:40:18Z</time>
      </trkpt>
      <trkpt lat="46.65834" lon="-1.74601">
        <ele>44</ele>
        <time>2018-04-27T19:41:18Z</time>
      </trkpt>
      <trkpt lat="46.65834" lon="-1.74601">
        <ele>44</ele>
        <time>2018-04-27T19:42:18Z</time>
      </trkpt>
      <trkpt lat="46.65806" lon="-1.74554">
        <ele>45</ele>
        <time>2018-04-27T19:43:18Z</time>
      </trkpt>
      <trkpt lat="46.65778" lon="-1.74518">
        <ele>45</ele>
        <time>2018-04-27T19:44:18Z</time>
      </trkpt>
      <trkpt lat="46.65757" lon="-1.74496">
        <ele>47</ele>
        <time>2018-04-27T19:45:18Z</time>
      </trkpt>
      <trkpt lat="46.65607" lon="-1.74385">
        <ele>51</ele>
        <time>2018-04-27T19:46:18Z</time>
      </trkpt>
      <trkpt lat="46.65537" lon="-1.74338">
        <ele>53</ele>
        <time>2018-04-27T19:47:18Z</time>
      </trkpt>
      <trkpt lat="46.65521" lon="-1.74318">
        <ele>53</ele>
        <time>2018-04-27T19:48:18Z</time>
      </trkpt>
      <trkpt lat="46.65436" lon="-1.74168">
        <ele>55</ele>
        <time>2018-04-27T19:49:18Z</time>
      </trkpt>
      <trkpt lat="46.65395" lon="-1.74097">
        <ele>54</ele>
        <time>2018-04-27T19:50:18Z</time>
      </trkpt>
      <trkpt lat="46.65303" lon="-1.73955">
        <ele>53</ele>
        <time>2018-04-27T19:51:18Z</time>
      </trkpt>
      <trkpt lat="46.6509" lon="-1.73712">
        <ele>55</ele>
        <time>2018-04-27T19:52:18Z</time>
      </trkpt>
      <trkpt lat="46.6503" lon="-1.73634">
        <ele>55</ele>
        <time>2018-04-27T19:53:18Z</time>
      </trkpt>
      <trkpt lat="46.64969" lon="-1.73567">
        <ele>55</ele>
        <time>2018-04-27T19:54:18Z</time>
      </trkpt>
      <trkpt lat="46.64855" lon="-1.73383">
        <ele>56</ele>
        <time>2018-04-27T19:55:18Z</time>
      </trkpt>
      <trkpt lat="46.64791" lon="-1.73256">
        <ele>56</ele>
        <time>2018-04-27T19:56:18Z</time>
      </trkpt>
      <trkpt lat="46.64733" lon="-1.73131">
        <ele>58</ele>
        <time>2018-04-27T19:57:18Z</time>
      </trkpt>
      <trkpt lat="46.64649" lon="-1.72958">
        <ele>58</ele>
        <time>2018-04-27T19:58:18Z</time>
      </trkpt>
      <trkpt lat="46.64633" lon="-1.72907">
        <ele>58</ele>
        <time>2018-04-27T19:59:18Z</time>
      </trkpt>
      <trkpt lat="46.64628" lon="-1.72856">
        <ele>58</ele>
        <time>2018-04-27T20:00:18Z</time>
      </trkpt>
      <trkpt lat="46.64624" lon="-1.72708">
        <ele>58</ele>
        <time>2018-04-27T20:01:18Z</time>
      </trkpt>
      <trkpt lat="46.64606" lon="-1.72634">
        <ele>59</ele>
        <time>2018-04-27T20:02:18Z</time>
      </trkpt>
      <trkpt lat="46.64575" lon="-1.72551">
        <ele>59</ele>
        <time>2018-04-27T20:03:18Z</time>
      </trkpt>
      <trkpt lat="46.6453" lon="-1.72313">
        <ele>59</ele>
        <time>2018-04-27T20:04:18Z</time>
      </trkpt>
      <trkpt lat="46.64514" lon="-1.72169">
        <ele>58</ele>
        <time>2018-04-27T20:05:18Z</time>
      </trkpt>
      <trkpt lat="46.64506" lon="-1.72061">
        <ele>57</ele>
        <time>2018-04-27T20:06:18Z</time>
      </trkpt>
      <trkpt lat="46.64494" lon="-1.71959">
        <ele>57</ele>
        <time>2018-04-27T20:07:18Z</time>
      </trkpt>
      <trkpt lat="46.64465" lon="-1.71834">
        <ele>56</ele>
        <time>2018-04-27T20:08:18Z</time>
      </trkpt>
      <trkpt lat="46.64456" lon="-1.71817">
        <ele>56</ele>
        <time>2018-04-27T20:09:18Z</time>
      </trkpt>
      <trkpt lat="46.64433" lon="-1.71762">
        <ele>56</ele>
        <time>2018-04-27T20:10:18Z</time>
      </trkpt>
      <trkpt lat="46.64421" lon="-1.71731">
        <ele>56</ele>
        <time>2018-04-27T20:11:18Z</time>
      </trkpt>
      <trkpt lat="46.64407" lon="-1.71615">
        <ele>54</ele>
        <time>2018-04-27T20:12:18Z</time>
      </trkpt>
      <trkpt lat="46.64398" lon="-1.71517">
        <ele>52</ele>
        <time>2018-04-27T20:13:18Z</time>
      </trkpt>
      <trkpt lat="46.64261" lon="-1.71517">
        <ele>54</ele>
        <time>2018-04-27T20:14:18Z</time>
      </trkpt>
      <trkpt lat="46.64129" lon="-1.71511">
        <ele>57</ele>
        <time>2018-04-27T20:15:18Z</time>
      </trkpt>
      <trkpt lat="46.64091" lon="-1.71521">
        <ele>57</ele>
        <time>2018-04-27T20:16:18Z</time>
      </trkpt>
      <trkpt lat="46.64085" lon="-1.71501">
        <ele>57</ele>
        <time>2018-04-27T20:17:18Z</time>
      </trkpt>
      <trkpt lat="46.64068" lon="-1.71468">
        <ele>58</ele>
        <time>2018-04-27T20:18:18Z</time>
      </trkpt>
      <trkpt lat="46.6405" lon="-1.71423">
        <ele>59</ele>
        <time>2018-04-27T20:19:18Z</time>
      </trkpt>
      <trkpt lat="46.64047" lon="-1.71401">
        <ele>59</ele>
        <time>2018-04-27T20:20:18Z</time>
      </trkpt>
      <trkpt lat="46.64064" lon="-1.71241">
        <ele>57</ele>
        <time>2018-04-27T20:21:18Z</time>
      </trkpt>
      <trkpt lat="46.64064" lon="-1.71233">
        <ele>57</ele>
        <time>2018-04-27T20:22:18Z</time>
      </trkpt>
      <trkpt lat="46.64022" lon="-1.71156">
        <ele>57</ele>
        <time>2018-04-27T20:23:18Z</time>
      </trkpt>
      <trkpt lat="46.63957" lon="-1.71028">
        <ele>57</ele>
        <time>2018-04-27T20:24:18Z</time>
      </trkpt>
      <trkpt lat="46.63932" lon="-1.70986">
        <ele>57</ele>
        <time>2018-04-27T20:25:18Z</time>
      </trkpt>
      <trkpt lat="46.63881" lon="-1.70885">
        <ele>58</ele>
        <time>2018-04-27T20:26:18Z</time>
      </trkpt>
      <trkpt lat="46.63848" lon="-1.70826">
        <ele>57</ele>
        <time>2018-04-27T20:27:18Z</time>
      </trkpt>
      <trkpt lat="46.63829" lon="-1.70782">
        <ele>57</ele>
        <time>2018-04-27T20:28:18Z</time>
      </trkpt>
      <trkpt lat="46.63775" lon="-1.70672">
        <ele>60</ele>
        <time>2018-04-27T20:29:18Z</time>
      </trkpt>
      <trkpt lat="46.63775" lon="-1.70672">
        <ele>60</ele>
        <time>2018-04-27T20:30:18Z</time>
      </trkpt>
      <trkpt lat="46.6341" lon="-1.69949">
        <ele>61</ele>
        <time>2018-04-27T20:31:18Z</time>
      </trkpt>
      <trkpt lat="46.62769" lon="-1.6866">
        <ele>51</ele>
        <time>2018-04-27T20:32:18Z</time>
      </trkpt>
      <trkpt lat="46.62546" lon="-1.68218">
        <ele>36</ele>
        <time>2018-04-27T20:33:18Z</time>
      </trkpt>
      <trkpt lat="46.62457" lon="-1.68037">
        <ele>35</ele>
        <time>2018-04-27T20:34:18Z</time>
      </trkpt>
      <trkpt lat="46.62414" lon="-1.67953">
        <ele>34</ele>
        <time>2018-04-27T20:35:18Z</time>
      </trkpt>
      <trkpt lat="46.62307" lon="-1.67739">
        <ele>40</ele>
        <time>2018-04-27T20:36:18Z</time>
      </trkpt>
      <trkpt lat="46.62275" lon="-1.67673">
        <ele>41</ele>
        <time>2018-04-27T20:37:18Z</time>
      </trkpt>
      <trkpt lat="46.62206" lon="-1.67514">
        <ele>40</ele>
        <time>2018-04-27T20:38:18Z</time>
      </trkpt>
      <trkpt lat="46.62131" lon="-1.67327">
        <ele>38</ele>
        <time>2018-04-27T20:39:18Z</time>
      </trkpt>
      <trkpt lat="46.62123" lon="-1.6728">
        <ele>37</ele>
        <time>2018-04-27T20:40:18Z</time>
      </trkpt>
      <trkpt lat="46.6212" lon="-1.67212">
        <ele>35</ele>
        <time>2018-04-27T20:41:18Z</time>
      </trkpt>
      <trkpt lat="46.6211" lon="-1.66853">
        <ele>21</ele>
        <time>2018-04-27T20:42:18Z</time>
      </trkpt>
      <trkpt lat="46.62109" lon="-1.66746">
        <ele>19</ele>
        <time>2018-04-27T20:43:18Z</time>
      </trkpt>
      <trkpt lat="46.62113" lon="-1.66671">
        <ele>19</ele>
        <time>2018-04-27T20:44:18Z</time>
      </trkpt>
      <trkpt lat="46.62113" lon="-1.66645">
        <ele>20</ele>
        <time>2018-04-27T20:45:18Z</time>
      </trkpt>
      <trkpt lat="46.6211" lon="-1.66617">
        <ele>20</ele>
        <time>2018-04-27T20:46:18Z</time>
      </trkpt>
      <trkpt lat="46.62094" lon="-1.66513">
        <ele>21</ele>
        <time>2018-04-27T20:47:18Z</time>
      </trkpt>
      <trkpt lat="46.62088" lon="-1.66438">
        <ele>23</ele>
        <time>2018-04-27T20:48:18Z</time>
      </trkpt>
      <trkpt lat="46.621" lon="-1.66249">
        <ele>24</ele>
        <time>2018-04-27T20:49:18Z</time>
      </trkpt>
      <trkpt lat="46.62102" lon="-1.66185">
        <ele>24</ele>
        <time>2018-04-27T20:50:18Z</time>
      </trkpt>
      <trkpt lat="46.62098" lon="-1.66147">
        <ele>24</ele>
        <time>2018-04-27T20:51:18Z</time>
      </trkpt>
      <trkpt lat="46.6209" lon="-1.66117">
        <ele>25</ele>
        <time>2018-04-27T20:52:18Z</time>
      </trkpt>
      <trkpt lat="46.62082" lon="-1.66092">
        <ele>25</ele>
        <time>2018-04-27T20:53:18Z</time>
      </trkpt>
      <trkpt lat="46.62068" lon="-1.66072">
        <ele>26</ele>
        <time>2018-04-27T20:54:18Z</time>
      </trkpt>
      <trkpt lat="46.61984" lon="-1.66026">
        <ele>31</ele>
        <time>2018-04-27T20:55:18Z</time>
      </trkpt>
      <trkpt lat="46.61977" lon="-1.66018">
        <ele>31</ele>
        <time>2018-04-27T20:56:18Z</time>
      </trkpt>
      <trkpt lat="46.61957" lon="-1.65968">
        <ele>32</ele>
        <time>2018-04-27T20:57:18Z</time>
      </trkpt>
      <trkpt lat="46.61908" lon="-1.6587">
        <ele>33</ele>
        <time>2018-04-27T20:58:18Z</time>
      </trkpt>
      <trkpt lat="46.61903" lon="-1.65873">
        <ele>33</ele>
        <time>2018-04-27T20:59:18Z</time>
      </trkpt>
      <trkpt lat="46.61898" lon="-1.65887">
        <ele>33</ele>
        <time>2018-04-27T21:00:18Z</time>
      </trkpt>
      <trkpt lat="46.61892" lon="-1.65893">
        <ele>33</ele>
        <time>2018-04-27T21:01:18Z</time>
      </trkpt>
      <trkpt lat="46.61886" lon="-1.65894">
        <ele>33</ele>
        <time>2018-04-27T21:02:18Z</time>
      </trkpt>
      <trkpt lat="46.61865" lon="-1.6589">
        <ele>34</ele>
        <time>2018-04-27T21:03:18Z</time>
      </trkpt>
      <trkpt lat="46.6186" lon="-1.65894">
        <ele>34</ele>
        <time>2018-04-27T21:04:18Z</time>
      </trkpt>
      <trkpt lat="46.61852" lon="-1.6591">
        <ele>34</ele>
        <time>2018-04-27T21:05:18Z</time>
      </trkpt>
      <trkpt lat="46.61824" lon="-1.65888">
        <ele>34</ele>
        <time>2018-04-27T21:06:18Z</time>
      </trkpt>
      <trkpt lat="46.61812" lon="-1.65874">
        <ele>34</ele>
        <time>2018-04-27T21:07:18Z</time>
      </trkpt>
      <trkpt lat="46.61783" lon="-1.65925">
        <ele>35</ele>
        <time>2018-04-27T21:08:18Z</time>
      </trkpt>
      <trkpt lat="46.61781" lon="-1.65926">
        <ele>35</ele>
        <time>2018-04-27T21:09:18Z</time>
      </trkpt>
      <trkpt lat="46.61779" lon="-1.65922">
        <ele>35</ele>
        <time>2018-04-27T21:10:18Z</time>
      </trkpt>
      <trkpt lat="46.6178" lon="-1.65919">
        <ele>35</ele>
        <time>2018-04-27T21:11:18Z</time>
      </trkpt>
      <trkpt lat="46.61747" lon="-1.6588">
        <ele>35</ele>
        <time>2018-04-27T21:12:18Z</time>
      </trkpt>
      <trkpt lat="46.61726" lon="-1.65846">
        <ele>35</ele>
        <time>2018-04-27T21:13:18Z</time>
      </trkpt>
      <trkpt lat="46.6172" lon="-1.65847">
        <ele>36</ele>
        <time>2018-04-27T21:14:18Z</time>
      </trkpt>
      <trkpt lat="46.61713" lon="-1.65845">
        <ele>36</ele>
        <time>2018-04-27T21:15:18Z</time>
      </trkpt>
      <trkpt lat="46.61707" lon="-1.65839">
        <ele>36</ele>
        <time>2018-04-27T21:16:18Z</time>
      </trkpt>
      <trkpt lat="46.61583" lon="-1.65888">
        <ele>37</ele>
        <time>2018-04-27T21:17:18Z</time>
      </trkpt>
      <trkpt lat="46.61421" lon="-1.65936">
        <ele>40</ele>
        <time>2018-04-27T21:18:18Z</time>
      </trkpt>
      <trkpt lat="46.61401" lon="-1.65945">
        <ele>40</ele>
        <time>2018-04-27T21:19:18Z</time>
      </trkpt>
      <trkpt lat="46.61373" lon="-1.65968">
        <ele>39</ele>
        <time>2018-04-27T21:20:18Z</time>
      </trkpt>
      <trkpt lat="46.61366" lon="-1.65964">
        <ele>39</ele>
        <time>2018-04-27T21:21:18Z</time>
      </trkpt>
      <trkpt lat="46.61337" lon="-1.65959">
        <ele>39</ele>
        <time>2018-04-27T21:22:18Z</time>
      </trkpt>
      <trkpt lat="46.61285" lon="-1.65954">
        <ele>40</ele>
        <time>2018-04-27T21:23:18Z</time>
      </trkpt>
      <trkpt lat="46.61162" lon="-1.65932">
        <ele>43</ele>
        <time>2018-04-27T21:24:18Z</time>
      </trkpt>
      <trkpt lat="46.61055" lon="-1.65919">
        <ele>46</ele>
        <time>2018-04-27T21:25:18Z</time>
      </trkpt>
      <trkpt lat="46.61051" lon="-1.65924">
        <ele>46</ele>
        <time>2018-04-27T21:26:18Z</time>
      </trkpt>
      <trkpt lat="46.61046" lon="-1.65921">
        <ele>47</ele>
        <time>2018-04-27T21:27:18Z</time>
      </trkpt>
      <trkpt lat="46.61045" lon="-1.65918">
        <ele>47</ele>
        <time>2018-04-27T21:28:18Z</time>
      </trkpt>
      <trkpt lat="46.61022" lon="-1.65918">
        <ele>48</ele>
        <time>2018-04-27T21:29:18Z</time>
      </trkpt>
      <trkpt lat="46.60797" lon="-1.6594">
        <ele>50</ele>
        <time>2018-04-27T21:30:18Z</time>
      </trkpt>
      <trkpt lat="46.60758" lon="-1.65933">
        <ele>49</ele>
        <time>2018-04-27T21:31:18Z</time>
      </trkpt>
      <trkpt lat="46.60737" lon="-1.65925">
        <ele>49</ele>
        <time>2018-04-27T21:32:18Z</time>
      </trkpt>
      <trkpt lat="46.60734" lon="-1.65948">
        <ele>50</ele>
        <time>2018-04-27T21:33:18Z</time>
      </trkpt>
      <trkpt lat="46.6073" lon="-1.65955">
        <ele>50</ele>
        <time>2018-04-27T21:34:18Z</time>
      </trkpt>
      <trkpt lat="46.60728" lon="-1.65983">
        <ele>51</ele>
        <time>2018-04-27T21:35:18Z</time>
      </trkpt>
      <trkpt lat="46.6072" lon="-1.65993">
        <ele>51</ele>
        <time>2018-04-27T21:36:18Z</time>
      </trkpt>
      <trkpt lat="46.60678" lon="-1.65989">
        <ele>52</ele>
        <time>2018-04-27T21:37:18Z</time>
      </trkpt>
      <trkpt lat="46.60675" lon="-1.6598">
        <ele>51</ele>
        <time>2018-04-27T21:38:18Z</time>
      </trkpt>
      <trkpt lat="46.60676" lon="-1.65927">
        <ele>50</ele>
        <time>2018-04-27T21:39:18Z</time>
      </trkpt>
      <trkpt lat="46.60675" lon="-1.65882">
        <ele>50</ele>
        <time>2018-04-27T21:40:18Z</time>
      </trkpt>
      <trkpt lat="46.60547" lon="-1.65793">
        <ele>48</ele>
        <time>2018-04-27T21:41:18Z</time>
      </trkpt>
      <trkpt lat="46.6052" lon="-1.65789">
        <ele>48</ele>
        <time>2018-04-27T21:42:18Z</time>
      </trkpt>
      <trkpt lat="46.60516" lon="-1.65778">
        <ele>48</ele>
        <time>2018-04-27T21:43:18Z</time>
      </trkpt>
      <trkpt lat="46.60507" lon="-1.65765">
        <ele>48</ele>
        <time>2018-04-27T21:44:18Z</time>
      </trkpt>
      <trkpt lat="46.60414" lon="-1.65697">
        <ele>48</ele>
        <time>2018-04-27T21:45:18Z</time>
      </trkpt>
      <trkpt lat="46.60394" lon="-1.65683">
        <ele>48</ele>
        <time>2018-04-27T21:46:18Z</time>
      </trkpt>
      <trkpt lat="46.6038" lon="-1.65683">
        <ele>47</ele>
        <time>2018-04-27T21:47:18Z</time>
      </trkpt>
      <trkpt lat="46.60371" lon="-1.65685">
        <ele>47</ele>
        <time>2018-04-27T21:48:18Z</time>
      </trkpt>
      <trkpt lat="46.60364" lon="-1.6569">
        <ele>47</ele>
        <time>2018-04-27T21:49:18Z</time>
      </trkpt>
      <trkpt lat="46.60356" lon="-1.65703">
        <ele>47</ele>
        <time>2018-04-27T21:50:18Z</time>
      </trkpt>
      <trkpt lat="46.60349" lon="-1.65707">
        <ele>47</ele>
        <time>2018-04-27T21:51:18Z</time>
      </trkpt>
      <trkpt lat="46.60341" lon="-1.65707">
        <ele>47</ele>
        <time>2018-04-27T21:52:18Z</time>
      </trkpt>
      <trkpt lat="46.60336" lon="-1.65705">
        <ele>47</ele>
        <time>2018-04-27T21:53:18Z</time>
      </trkpt>
      <trkpt lat="46.60327" lon="-1.65693">
        <ele>47</ele>
        <time>2018-04-27T21:54:18Z</time>
      </trkpt>
      <trkpt lat="46.60324" lon="-1.65684">
        <ele>47</ele>
        <time>2018-04-27T21:55:18Z</time>
      </trkpt>
      <trkpt lat="46.60324" lon="-1.65675">
        <ele>47</ele>
        <time>2018-04-27T21:56:18Z</time>
      </trkpt>
      <trkpt lat="46.60327" lon="-1.65661">
        <ele>47</ele>
        <time>2018-04-27T21:57:18Z</time>
      </trkpt>
      <trkpt lat="46.60321" lon="-1.65626">
        <ele>47</ele>
        <time>2018-04-27T21:58:18Z</time>
      </trkpt>
      <trkpt lat="46.60301" lon="-1.65589">
        <ele>47</ele>
        <time>2018-04-27T21:59:18Z</time>
      </trkpt>
      <trkpt lat="46.60242" lon="-1.65516">
        <ele>48</ele>
        <time>2018-04-27T22:00:18Z</time>
      </trkpt>
      <trkpt lat="46.60225" lon="-1.65506">
        <ele>48</ele>
        <time>2018-04-27T22:01:18Z</time>
      </trkpt>
      <trkpt lat="46.6022" lon="-1.65505">
        <ele>48</ele>
        <time>2018-04-27T22:02:18Z</time>
      </trkpt>
      <trkpt lat="46.60208" lon="-1.6551">
        <ele>48</ele>
        <time>2018-04-27T22:03:18Z</time>
      </trkpt>
      <trkpt lat="46.60195" lon="-1.65506">
        <ele>48</ele>
        <time>2018-04-27T22:04:18Z</time>
      </trkpt>
      <trkpt lat="46.6019" lon="-1.65501">
        <ele>48</ele>
        <time>2018-04-27T22:05:18Z</time>
      </trkpt>
      <trkpt lat="46.60183" lon="-1.65485">
        <ele>48</ele>
        <time>2018-04-27T22:06:18Z</time>
      </trkpt>
      <trkpt lat="46.60182" lon="-1.65478">
        <ele>48</ele>
        <time>2018-04-27T22:07:18Z</time>
      </trkpt>
      <trkpt lat="46.60183" lon="-1.65463">
        <ele>48</ele>
        <time>2018-04-27T22:08:18Z</time>
      </trkpt>
      <trkpt lat="46.60171" lon="-1.65433">
        <ele>48</ele>
        <time>2018-04-27T22:09:18Z</time>
      </trkpt>
      <trkpt lat="46.60146" lon="-1.65404">
        <ele>48</ele>
        <time>2018-04-27T22:10:18Z</time>
      </trkpt>
      <trkpt lat="46.60094" lon="-1.65359">
        <ele>49</ele>
        <time>2018-04-27T22:11:18Z</time>
      </trkpt>
      <trkpt lat="46.60052" lon="-1.6533">
        <ele>49</ele>
        <time>2018-04-27T22:12:18Z</time>
      </trkpt>
      <trkpt lat="46.59784" lon="-1.6516">
        <ele>44</ele>
        <time>2018-04-27T22:13:18Z</time>
      </trkpt>
      <trkpt lat="46.59496" lon="-1.64978">
        <ele>49</ele>
        <time>2018-04-27T22:14:18Z</time>
      </trkpt>
      <trkpt lat="46.59395" lon="-1.64917">
        <ele>48</ele>
        <time>2018-04-27T22:15:18Z</time>
      </trkpt>
      <trkpt lat="46.59356" lon="-1.64891">
        <ele>47</ele>
        <time>2018-04-27T22:16:18Z</time>
      </trkpt>
      <trkpt lat="46.59336" lon="-1.64879">
        <ele>47</ele>
        <time>2018-04-27T22:17:18Z</time>
      </trkpt>
      <trkpt lat="46.59248" lon="-1.64848">
        <ele>41</ele>
        <time>2018-04-27T22:18:18Z</time>
      </trkpt>
      <trkpt lat="46.59248" lon="-1.64848">
        <ele>41</ele>
        <time>2018-04-27T22:19:18Z</time>
      </trkpt>
      <trkpt lat="46.59211" lon="-1.64835">
        <ele>40</ele>
        <time>2018-04-27T22:20:18Z</time>
      </trkpt>
      <trkpt lat="46.59204" lon="-1.64829">
        <ele>39</ele>
        <time>2018-04-27T22:21:18Z</time>
      </trkpt>
      <trkpt lat="46.59152" lon="-1.64807">
        <ele>38</ele>
        <time>2018-04-27T22:22:18Z</time>
      </trkpt>
      <trkpt lat="46.59115" lon="-1.64794">
        <ele>38</ele>
        <time>2018-04-27T22:23:18Z</time>
      </trkpt>
      <trkpt lat="46.59052" lon="-1.64785">
        <ele>39</ele>
        <time>2018-04-27T22:24:18Z</time>
      </trkpt>
      <trkpt lat="46.58973" lon="-1.64792">
        <ele>38</ele>
        <time>2018-04-27T22:25:18Z</time>
      </trkpt>
      <trkpt lat="46.58823" lon="-1.64814">
        <ele>36</ele>
        <time>2018-04-27T22:26:18Z</time>
      </trkpt>
      <trkpt lat="46.58797" lon="-1.64811">
        <ele>35</ele>
        <time>2018-04-27T22:27:18Z</time>
      </trkpt>
      <trkpt lat="46.58769" lon="-1.64797">
        <ele>34</ele>
        <time>2018-04-27T22:28:18Z</time>
      </trkpt>
      <trkpt lat="46.58746" lon="-1.64776">
        <ele>34</ele>
        <time>2018-04-27T22:29:18Z</time>
      </trkpt>
      <trkpt lat="46.58702" lon="-1.64719">
        <ele>36</ele>
        <time>2018-04-27T22:30:18Z</time>
      </trkpt>
      <trkpt lat="46.58681" lon="-1.64735">
        <ele>36</ele>
        <time>2018-04-27T22:31:18Z</time>
      </trkpt>
      <trkpt lat="46.58359" lon="-1.64836">
        <ele>40</ele>
        <time>2018-04-27T22:32:18Z</time>
      </trkpt>
      <trkpt lat="46.58218" lon="-1.64882">
        <ele>39</ele>
        <time>2018-04-27T22:33:18Z</time>
      </trkpt>
      <trkpt lat="46.58189" lon="-1.64901">
        <ele>40</ele>
        <time>2018-04-27T22:34:18Z</time>
      </trkpt>
      <trkpt lat="46.58169" lon="-1.64921">
        <ele>40</ele>
        <time>2018-04-27T22:35:18Z</time>
      </trkpt>
      <trkpt lat="46.58005" lon="-1.65125">
        <ele>40</ele>
        <time>2018-04-27T22:36:18Z</time>
      </trkpt>
      <trkpt lat="46.57983" lon="-1.65166">
        <ele>41</ele>
        <time>2018-04-27T22:37:18Z</time>
      </trkpt>
      <trkpt lat="46.57966" lon="-1.6522">
        <ele>41</ele>
        <time>2018-04-27T22:38:18Z</time>
      </trkpt>
      <trkpt lat="46.57946" lon="-1.65339">
        <ele>40</ele>
        <time>2018-04-27T22:39:18Z</time>
      </trkpt>
      <trkpt lat="46.57929" lon="-1.65403">
        <ele>39</ele>
        <time>2018-04-27T22:40:18Z</time>
      </trkpt>
      <trkpt lat="46.57867" lon="-1.65556">
        <ele>39</ele>
        <time>2018-04-27T22:41:18Z</time>
      </trkpt>
      <trkpt lat="46.57816" lon="-1.65703">
        <ele>38</ele>
        <time>2018-04-27T22:42:18Z</time>
      </trkpt>
      <trkpt lat="46.57705" lon="-1.66347">
        <ele>22</ele>
        <time>2018-04-27T22:43:18Z</time>
      </trkpt>
      <trkpt lat="46.57674" lon="-1.66416">
        <ele>20</ele>
        <time>2018-04-27T22:44:18Z</time>
      </trkpt>
      <trkpt lat="46.57642" lon="-1.66469">
        <ele>17</ele>
        <time>2018-04-27T22:45:18Z</time>
      </trkpt>
      <trkpt lat="46.57568" lon="-1.66552">
        <ele>15</ele>
        <time>2018-04-27T22:46:18Z</time>
      </trkpt>
      <trkpt lat="46.57553" lon="-1.66576">
        <ele>13</ele>
        <time>2018-04-27T22:47:18Z</time>
      </trkpt>
      <trkpt lat="46.57533" lon="-1.6665">
        <ele>12</ele>
        <time>2018-04-27T22:48:18Z</time>
      </trkpt>
      <trkpt lat="46.5752" lon="-1.66707">
        <ele>14</ele>
        <time>2018-04-27T22:49:18Z</time>
      </trkpt>
      <trkpt lat="46.57502" lon="-1.66757">
        <ele>16</ele>
        <time>2018-04-27T22:50:18Z</time>
      </trkpt>
      <trkpt lat="46.57483" lon="-1.66793">
        <ele>16</ele>
        <time>2018-04-27T22:51:18Z</time>
      </trkpt>
      <trkpt lat="46.57449" lon="-1.66827">
        <ele>19</ele>
        <time>2018-04-27T22:52:18Z</time>
      </trkpt>
      <trkpt lat="46.57247" lon="-1.66984">
        <ele>27</ele>
        <time>2018-04-27T22:53:18Z</time>
      </trkpt>
      <trkpt lat="46.57181" lon="-1.6704">
        <ele>25</ele>
        <time>2018-04-27T22:54:18Z</time>
      </trkpt>
      <trkpt lat="46.57044" lon="-1.6719">
        <ele>28</ele>
        <time>2018-04-27T22:55:18Z</time>
      </trkpt>
      <trkpt lat="46.56999" lon="-1.67214">
        <ele>30</ele>
        <time>2018-04-27T22:56:18Z</time>
      </trkpt>
      <trkpt lat="46.56863" lon="-1.67243">
        <ele>33</ele>
        <time>2018-04-27T22:57:18Z</time>
      </trkpt>
      <trkpt lat="46.56798" lon="-1.6726">
        <ele>35</ele>
        <time>2018-04-27T22:58:18Z</time>
      </trkpt>
      <trkpt lat="46.5677" lon="-1.6727">
        <ele>36</ele>
        <time>2018-04-27T22:59:18Z</time>
      </trkpt>
      <trkpt lat="46.56233" lon="-1.67198">
        <ele>36</ele>
        <time>2018-04-27T23:00:18Z</time>
      </trkpt>
      <trkpt lat="46.56069" lon="-1.6714">
        <ele>35</ele>
        <time>2018-04-27T23:01:18Z</time>
      </trkpt>
      <trkpt lat="46.55959" lon="-1.67106">
        <ele>35</ele>
        <time>2018-04-27T23:02:18Z</time>
      </trkpt>
      <trkpt lat="46.55741" lon="-1.67069">
        <ele>32</ele>
        <time>2018-04-27T23:03:18Z</time>
      </trkpt>
      <trkpt lat="46.55544" lon="-1.6708">
        <ele>30</ele>
        <time>2018-04-27T23:04:18Z</time>
      </trkpt>
      <trkpt lat="46.55494" lon="-1.67081">
        <ele>29</ele>
        <time>2018-04-27T23:05:18Z</time>
      </trkpt>
      <trkpt lat="46.55456" lon="-1.67073">
        <ele>26</ele>
        <time>2018-04-27T23:06:18Z</time>
      </trkpt>
      <trkpt lat="46.5542" lon="-1.67041">
        <ele>24</ele>
        <time>2018-04-27T23:07:18Z</time>
      </trkpt>
      <trkpt lat="46.55335" lon="-1.66938">
        <ele>19</ele>
        <time>2018-04-27T23:08:18Z</time>
      </trkpt>
      <trkpt lat="46.55304" lon="-1.66904">
        <ele>17</ele>
        <time>2018-04-27T23:09:18Z</time>
      </trkpt>
      <trkpt lat="46.55266" lon="-1.66888">
        <ele>15</ele>
        <time>2018-04-27T23:10:18Z</time>
      </trkpt>
      <trkpt lat="46.55152" lon="-1.66874">
        <ele>11</ele>
        <time>2018-04-27T23:11:18Z</time>
      </trkpt>
      <trkpt lat="46.55107" lon="-1.6687">
        <ele>13</ele>
        <time>2018-04-27T23:12:18Z</time>
      </trkpt>
      <trkpt lat="46.55082" lon="-1.66889">
        <ele>13</ele>
        <time>2018-04-27T23:13:18Z</time>
      </trkpt>
      <trkpt lat="46.54916" lon="-1.67057">
        <ele>15</ele>
        <time>2018-04-27T23:14:18Z</time>
      </trkpt>
      <trkpt lat="46.54898" lon="-1.67071">
        <ele>16</ele>
        <time>2018-04-27T23:15:18Z</time>
      </trkpt>
      <trkpt lat="46.54867" lon="-1.67073">
        <ele>16</ele>
        <time>2018-04-27T23:16:18Z</time>
      </trkpt>
      <trkpt lat="46.5481" lon="-1.67068">
        <ele>17</ele>
        <time>2018-04-27T23:17:18Z</time>
      </trkpt>
      <trkpt lat="46.54754" lon="-1.67057">
        <ele>19</ele>
        <time>2018-04-27T23:18:18Z</time>
      </trkpt>
      <trkpt lat="46.54669" lon="-1.67045">
        <ele>22</ele>
        <time>2018-04-27T23:19:18Z</time>
      </trkpt>
      <trkpt lat="46.54589" lon="-1.6704">
        <ele>25</ele>
        <time>2018-04-27T23:20:18Z</time>
      </trkpt>
      <trkpt lat="46.54529" lon="-1.6705">
        <ele>26</ele>
        <time>2018-04-27T23:21:18Z</time>
      </trkpt>
      <trkpt lat="46.54521" lon="-1.67088">
        <ele>27</ele>
        <time>2018-04-27T23:22:18Z</time>
      </trkpt>
      <trkpt lat="46.54518" lon="-1.6712">
        <ele>28</ele>
        <time>2018-04-27T23:23:18Z</time>
      </trkpt>
      <trkpt lat="46.54516" lon="-1.67181">
        <ele>27</ele>
        <time>2018-04-27T23:24:18Z</time>
      </trkpt>
      <trkpt lat="46.54523" lon="-1.67223">
        <ele>26</ele>
        <time>2018-04-27T23:25:18Z</time>
      </trkpt>
      <trkpt lat="46.54528" lon="-1.67225">
        <ele>26</ele>
        <time>2018-04-27T23:26:18Z</time>
      </trkpt>
      <trkpt lat="46.54529" lon="-1.67227">
        <ele>26</ele>
        <time>2018-04-27T23:27:18Z</time>
      </trkpt>
      <trkpt lat="46.54527" lon="-1.67235">
        <ele>26</ele>
        <time>2018-04-27T23:28:18Z</time>
      </trkpt>
      <trkpt lat="46.54539" lon="-1.67303">
        <ele>23</ele>
        <time>2018-04-27T23:29:18Z</time>
      </trkpt>
      <trkpt lat="46.54539" lon="-1.67332">
        <ele>21</ele>
        <time>2018-04-27T23:30:18Z</time>
      </trkpt>
      <trkpt lat="46.54536" lon="-1.67379">
        <ele>19</ele>
        <time>2018-04-27T23:31:18Z</time>
      </trkpt>
      <trkpt lat="46.54535" lon="-1.67404">
        <ele>18</ele>
        <time>2018-04-27T23:32:18Z</time>
      </trkpt>
      <trkpt lat="46.54566" lon="-1.67707">
        <ele>22</ele>
        <time>2018-04-27T23:33:18Z</time>
      </trkpt>
      <trkpt lat="46.54561" lon="-1.6774">
        <ele>23</ele>
        <time>2018-04-27T23:34:18Z</time>
      </trkpt>
      <trkpt lat="46.54567" lon="-1.67744">
        <ele>23</ele>
        <time>2018-04-27T23:35:18Z</time>
      </trkpt>
      <trkpt lat="46.54569" lon="-1.67753">
        <ele>23</ele>
        <time>2018-04-27T23:36:18Z</time>
      </trkpt>
      <trkpt lat="46.54566" lon="-1.67762">
        <ele>23</ele>
        <time>2018-04-27T23:37:18Z</time>
      </trkpt>
      <trkpt lat="46.54573" lon="-1.67779">
        <ele>24</ele>
        <time>2018-04-27T23:38:18Z</time>
      </trkpt>
      <trkpt lat="46.54575" lon="-1.67793">
        <ele>24</ele>
        <time>2018-04-27T23:39:18Z</time>
      </trkpt>
      <trkpt lat="46.54576" lon="-1.67844">
        <ele>25</ele>
        <time>2018-04-27T23:40:18Z</time>
      </trkpt>
      <trkpt lat="46.54569" lon="-1.67939">
        <ele>24</ele>
        <time>2018-04-27T23:41:18Z</time>
      </trkpt>
      <trkpt lat="46.54569" lon="-1.67939">
        <ele>24</ele>
        <time>2018-04-27T23:42:18Z</time>
      </trkpt>
      <trkpt lat="46.54546" lon="-1.68245">
        <ele>17</ele>
        <time>2018-04-27T23:43:18Z</time>
      </trkpt>
      <trkpt lat="46.54545" lon="-1.68336">
        <ele>15</ele>
        <time>2018-04-27T23:44:18Z</time>
      </trkpt>
      <trkpt lat="46.5455" lon="-1.68389">
        <ele>15</ele>
        <time>2018-04-27T23:45:18Z</time>
      </trkpt>
      <trkpt lat="46.54564" lon="-1.68476">
        <ele>15</ele>
        <time>2018-04-27T23:46:18Z</time>
      </trkpt>
      <trkpt lat="46.54568" lon="-1.68517">
        <ele>15</ele>
        <time>2018-04-27T23:47:18Z</time>
      </trkpt>
      <trkpt lat="46.54569" lon="-1.68563">
        <ele>15</ele>
        <time>2018-04-27T23:48:18Z</time>
      </trkpt>
      <trkpt lat="46.54565" lon="-1.68605">
        <ele>15</ele>
        <time>2018-04-27T23:49:18Z</time>
      </trkpt>
      <trkpt lat="46.54533" lon="-1.68804">
        <ele>14</ele>
        <time>2018-04-27T23:50:18Z</time>
      </trkpt>
      <trkpt lat="46.54505" lon="-1.69003">
        <ele>10</ele>
        <time>2018-04-27T23:51:18Z</time>
      </trkpt>
      <trkpt lat="46.54496" lon="-1.69042">
        <ele>11</ele>
        <time>2018-04-27T23:52:18Z</time>
      </trkpt>
      <trkpt lat="46.54435" lon="-1.69248">
        <ele>14</ele>
        <time>2018-04-27T23:53:18Z</time>
      </trkpt>
      <trkpt lat="46.54396" lon="-1.69353">
        <ele>14</ele>
        <time>2018-04-27T23:54:18Z</time>
      </trkpt>
      <trkpt lat="46.54362" lon="-1.69415">
        <ele>16</ele>
        <time>2018-04-27T23:55:18Z</time>
      </trkpt>
      <trkpt lat="46.54273" lon="-1.69537">
        <ele>21</ele>
        <time>2018-04-27T23:56:18Z</time>
      </trkpt>
      <trkpt lat="46.54107" lon="-1.69742">
        <ele>25</ele>
        <time>2018-04-27T23:57:18Z</time>
      </trkpt>
      <trkpt lat="46.53892" lon="-1.70014">
        <ele>27</ele>
        <time>2018-04-27T23:58:18Z</time>
      </trkpt>
      <trkpt lat="46.53459" lon="-1.70556">
        <ele>34</ele>
        <time>2018-04-27T23:59:18Z</time>
      </trkpt>
      <trkpt lat="46.53388" lon="-1.70679">
        <ele>34</ele>
        <time>2018-04-28T00:00:18Z</time>
      </trkpt>
      <trkpt lat="46.53111" lon="-1.71177">
        <ele>38</ele>
        <time>2018-04-28T00:01:18Z</time>
      </trkpt>
      <trkpt lat="46.53047" lon="-1.71302">
        <ele>40</ele>
        <time>2018-04-28T00:02:18Z</time>
      </trkpt>
      <trkpt lat="46.53001" lon="-1.71379">
        <ele>40</ele>
        <time>2018-04-28T00:03:18Z</time>
      </trkpt>
      <trkpt lat="46.52966" lon="-1.71448">
        <ele>40</ele>
        <time>2018-04-28T00:04:18Z</time>
      </trkpt>
      <trkpt lat="46.52923" lon="-1.71521">
        <ele>41</ele>
        <time>2018-04-28T00:05:18Z</time>
      </trkpt>
      <trkpt lat="46.52894" lon="-1.71573">
        <ele>42</ele>
        <time>2018-04-28T00:06:18Z</time>
      </trkpt>
      <trkpt lat="46.52878" lon="-1.71612">
        <ele>42</ele>
        <time>2018-04-28T00:07:18Z</time>
      </trkpt>
      <trkpt lat="46.52863" lon="-1.7167">
        <ele>41</ele>
        <time>2018-04-28T00:08:18Z</time>
      </trkpt>
      <trkpt lat="46.52804" lon="-1.71998">
        <ele>40</ele>
        <time>2018-04-28T00:09:18Z</time>
      </trkpt>
      <trkpt lat="46.52796" lon="-1.72029">
        <ele>39</ele>
        <time>2018-04-28T00:10:18Z</time>
      </trkpt>
      <trkpt lat="46.52785" lon="-1.72064">
        <ele>38</ele>
        <time>2018-04-28T00:11:18Z</time>
      </trkpt>
      <trkpt lat="46.5267" lon="-1.7235">
        <ele>39</ele>
        <time>2018-04-28T00:12:18Z</time>
      </trkpt>
      <trkpt lat="46.52661" lon="-1.72381">
        <ele>40</ele>
        <time>2018-04-28T00:13:18Z</time>
      </trkpt>
      <trkpt lat="46.52648" lon="-1.72433">
        <ele>40</ele>
        <time>2018-04-28T00:14:18Z</time>
      </trkpt>
      <trkpt lat="46.52492" lon="-1.73241">
        <ele>37</ele>
        <time>2018-04-28T00:15:18Z</time>
      </trkpt>
      <trkpt lat="46.52488" lon="-1.73268">
        <ele>37</ele>
        <time>2018-04-28T00:16:18Z</time>
      </trkpt>
      <trkpt lat="46.52487" lon="-1.733">
        <ele>37</ele>
        <time>2018-04-28T00:17:18Z</time>
      </trkpt>
      <trkpt lat="46.5249" lon="-1.73417">
        <ele>35</ele>
        <time>2018-04-28T00:18:18Z</time>
      </trkpt>
      <trkpt lat="46.52493" lon="-1.73519">
        <ele>36</ele>
        <time>2018-04-28T00:19:18Z</time>
      </trkpt>
      <trkpt lat="46.52498" lon="-1.73587">
        <ele>35</ele>
        <time>2018-04-28T00:20:18Z</time>
      </trkpt>
      <trkpt lat="46.525" lon="-1.73599">
        <ele>35</ele>
        <time>2018-04-28T00:21:18Z</time>
      </trkpt>
      <trkpt lat="46.52511" lon="-1.73631">
        <ele>34</ele>
        <time>2018-04-28T00:22:18Z</time>
      </trkpt>
      <trkpt lat="46.52523" lon="-1.73646">
        <ele>34</ele>
        <time>2018-04-28T00:23:18Z</time>
      </trkpt>
      <trkpt lat="46.52524" lon="-1.73654">
        <ele>34</ele>
        <time>2018-04-28T00:24:18Z</time>
      </trkpt>
      <trkpt lat="46.52519" lon="-1.73666">
        <ele>34</ele>
        <time>2018-04-28T00:25:18Z</time>
      </trkpt>
      <trkpt lat="46.52519" lon="-1.7369">
        <ele>33</ele>
        <time>2018-04-28T00:26:18Z</time>
      </trkpt>
      <trkpt lat="46.52571" lon="-1.7387">
        <ele>30</ele>
        <time>2018-04-28T00:27:18Z</time>
      </trkpt>
      <trkpt lat="46.52591" lon="-1.73954">
        <ele>30</ele>
        <time>2018-04-28T00:28:18Z</time>
      </trkpt>
      <trkpt lat="46.52603" lon="-1.74019">
        <ele>30</ele>
        <time>2018-04-28T00:29:18Z</time>
      </trkpt>
      <trkpt lat="46.52632" lon="-1.74227">
        <ele>33</ele>
        <time>2018-04-28T00:30:18Z</time>
      </trkpt>
      <trkpt lat="46.52636" lon="-1.74275">
        <ele>33</ele>
        <time>2018-04-28T00:31:18Z</time>
      </trkpt>
      <trkpt lat="46.52635" lon="-1.74457">
        <ele>34</ele>
        <time>2018-04-28T00:32:18Z</time>
      </trkpt>
      <trkpt lat="46.52636" lon="-1.74505">
        <ele>34</ele>
        <time>2018-04-28T00:33:18Z</time>
      </trkpt>
      <trkpt lat="46.52644" lon="-1.74568">
        <ele>34</ele>
        <time>2018-04-28T00:34:18Z</time>
      </trkpt>
      <trkpt lat="46.52651" lon="-1.74611">
        <ele>34</ele>
        <time>2018-04-28T00:35:18Z</time>
      </trkpt>
      <trkpt lat="46.52711" lon="-1.7484">
        <ele>39</ele>
        <time>2018-04-28T00:36:18Z</time>
      </trkpt>
      <trkpt lat="46.52722" lon="-1.74901">
        <ele>39</ele>
        <time>2018-04-28T00:37:18Z</time>
      </trkpt>
      <trkpt lat="46.52741" lon="-1.75057">
        <ele>39</ele>
        <time>2018-04-28T00:38:18Z</time>
      </trkpt>
      <trkpt lat="46.52747" lon="-1.75088">
        <ele>39</ele>
        <time>2018-04-28T00:39:18Z</time>
      </trkpt>
      <trkpt lat="46.52764" lon="-1.75125">
        <ele>39</ele>
        <time>2018-04-28T00:40:18Z</time>
      </trkpt>
      <trkpt lat="46.52765" lon="-1.75167">
        <ele>39</ele>
        <time>2018-04-28T00:41:18Z</time>
      </trkpt>
      <trkpt lat="46.5277" lon="-1.7518">
        <ele>39</ele>
        <time>2018-04-28T00:42:18Z</time>
      </trkpt>
      <trkpt lat="46.5278" lon="-1.75199">
        <ele>38</ele>
        <time>2018-04-28T00:43:18Z</time>
      </trkpt>
      <trkpt lat="46.52811" lon="-1.75251">
        <ele>39</ele>
        <time>2018-04-28T00:44:18Z</time>
      </trkpt>
      <trkpt lat="46.5282" lon="-1.75282">
        <ele>38</ele>
        <time>2018-04-28T00:45:18Z</time>
      </trkpt>
      <trkpt lat="46.52827" lon="-1.75288">
        <ele>38</ele>
        <time>2018-04-28T00:46:18Z</time>
      </trkpt>
      <trkpt lat="46.52832" lon="-1.75298">
        <ele>38</ele>
        <time>2018-04-28T00:47:18Z</time>
      </trkpt>
      <trkpt lat="46.52835" lon="-1.75307">
        <ele>38</ele>
        <time>2018-04-28T00:48:18Z</time>
      </trkpt>
      <trkpt lat="46.52836" lon="-1.75318">
        <ele>38</ele>
        <time>2018-04-28T00:49:18Z</time>
      </trkpt>
      <trkpt lat="46.52835" lon="-1.75328">
        <ele>37</ele>
        <time>2018-04-28T00:50:18Z</time>
      </trkpt>
      <trkpt lat="46.52832" lon="-1.75338">
        <ele>37</ele>
        <time>2018-04-28T00:51:18Z</time>
      </trkpt>
      <trkpt lat="46.52834" lon="-1.75349">
        <ele>37</ele>
        <time>2018-04-28T00:52:18Z</time>
      </trkpt>
      <trkpt lat="46.5285" lon="-1.75398">
        <ele>37</ele>
        <time>2018-04-28T00:53:18Z</time>
      </trkpt>
      <trkpt lat="46.5287" lon="-1.75444">
        <ele>36</ele>
        <time>2018-04-28T00:54:18Z</time>
      </trkpt>
      <trkpt lat="46.52915" lon="-1.75543">
        <ele>35</ele>
        <time>2018-04-28T00:55:18Z</time>
      </trkpt>
      <trkpt lat="46.52993" lon="-1.75678">
        <ele>32</ele>
        <time>2018-04-28T00:56:18Z</time>
      </trkpt>
      <trkpt lat="46.53009" lon="-1.75701">
        <ele>32</ele>
        <time>2018-04-28T00:57:18Z</time>
      </trkpt>
      <trkpt lat="46.53024" lon="-1.75721">
        <ele>32</ele>
        <time>2018-04-28T00:58:18Z</time>
      </trkpt>
      <trkpt lat="46.53047" lon="-1.75742">
        <ele>32</ele>
        <time>2018-04-28T00:59:18Z</time>
      </trkpt>
      <trkpt lat="46.53126" lon="-1.75804">
        <ele>30</ele>
        <time>2018-04-28T01:00:18Z</time>
      </trkpt>
      <trkpt lat="46.53252" lon="-1.75923">
        <ele>30</ele>
        <time>2018-04-28T01:01:18Z</time>
      </trkpt>
      <trkpt lat="46.53258" lon="-1.75931">
        <ele>30</ele>
        <time>2018-04-28T01:02:18Z</time>
      </trkpt>
      <trkpt lat="46.53276" lon="-1.75959">
        <ele>29</ele>
        <time>2018-04-28T01:03:18Z</time>
      </trkpt>
      <trkpt lat="46.53369" lon="-1.7613">
        <ele>29</ele>
        <time>2018-04-28T01:04:18Z</time>
      </trkpt>
      <trkpt lat="46.5342" lon="-1.7621">
        <ele>30</ele>
        <time>2018-04-28T01:05:18Z</time>
      </trkpt>
      <trkpt lat="46.53426" lon="-1.76221">
        <ele>29</ele>
        <time>2018-04-28T01:06:18Z</time>
      </trkpt>
      <trkpt lat="46.53435" lon="-1.76249">
        <ele>29</ele>
        <time>2018-04-28T01:07:18Z</time>
      </trkpt>
      <trkpt lat="46.53443" lon="-1.76289">
        <ele>29</ele>
        <time>2018-04-28T01:08:18Z</time>
      </trkpt>
      <trkpt lat="46.53454" lon="-1.76411">
        <ele>29</ele>
        <time>2018-04-28T01:09:18Z</time>
      </trkpt>
      <trkpt lat="46.53463" lon="-1.7649">
        <ele>29</ele>
        <time>2018-04-28T01:10:18Z</time>
      </trkpt>
      <trkpt lat="46.53474" lon="-1.76538">
        <ele>28</ele>
        <time>2018-04-28T01:11:18Z</time>
      </trkpt>
      <trkpt lat="46.53511" lon="-1.76665">
        <ele>29</ele>
        <time>2018-04-28T01:12:18Z</time>
      </trkpt>
      <trkpt lat="46.53523" lon="-1.76712">
        <ele>29</ele>
        <time>2018-04-28T01:13:18Z</time>
      </trkpt>
      <trkpt lat="46.53558" lon="-1.76921">
        <ele>28</ele>
        <time>2018-04-28T01:14:18Z</time>
      </trkpt>
      <trkpt lat="46.53575" lon="-1.77014">
        <ele>29</ele>
        <time>2018-04-28T01:15:18Z</time>
      </trkpt>
      <trkpt lat="46.53624" lon="-1.77219">
        <ele>28</ele>
        <time>2018-04-28T01:16:18Z</time>
      </trkpt>
      <trkpt lat="46.53637" lon="-1.77263">
        <ele>28</ele>
        <time>2018-04-28T01:17:18Z</time>
      </trkpt>
      <trkpt lat="46.53646" lon="-1.77302">
        <ele>28</ele>
        <time>2018-04-28T01:18:18Z</time>
      </trkpt>
      <trkpt lat="46.53698" lon="-1.77395">
        <ele>27</ele>
        <time>2018-04-28T01:19:18Z</time>
      </trkpt>
      <trkpt lat="46.53723" lon="-1.77494">
        <ele>25</ele>
        <time>2018-04-28T01:20:18Z</time>
      </trkpt>
      <trkpt lat="46.53742" lon="-1.77625">
        <ele>22</ele>
        <time>2018-04-28T01:21:18Z</time>
      </trkpt>
      <trkpt lat="46.53759" lon="-1.77732">
        <ele>20</ele>
        <time>2018-04-28T01:22:18Z</time>
      </trkpt>
      <trkpt lat="46.53772" lon="-1.77839">
        <ele>17</ele>
        <time>2018-04-28T01:23:18Z</time>
      </trkpt>
      <trkpt lat="46.53772" lon="-1.77908">
        <ele>15</ele>
        <time>2018-04-28T01:24:18Z</time>
      </trkpt>
      <trkpt lat="46.5376" lon="-1.77967">
        <ele>14</ele>
        <time>2018-04-28T01:25:18Z</time>
      </trkpt>
      <trkpt lat="46.53756" lon="-1.77995">
        <ele>13</ele>
        <time>2018-04-28T01:26:18Z</time>
      </trkpt>
      <trkpt lat="46.53756" lon="-1.78013">
        <ele>13</ele>
        <time>2018-04-28T01:27:18Z</time>
      </trkpt>
      <trkpt lat="46.5376" lon="-1.78054">
        <ele>13</ele>
        <time>2018-04-28T01:28:18Z</time>
      </trkpt>
      <trkpt lat="46.53781" lon="-1.78144">
        <ele>13</ele>
        <time>2018-04-28T01:29:18Z</time>
      </trkpt>
      <trkpt lat="46.53788" lon="-1.78144">
        <ele>13</ele>
        <time>2018-04-28T01:30:18Z</time>
      </trkpt>
      <trkpt lat="46.53793" lon="-1.78149">
        <ele>13</ele>
        <time>2018-04-28T01:31:18Z</time>
      </trkpt>
      <trkpt lat="46.53795" lon="-1.78153">
        <ele>13</ele>
        <time>2018-04-28T01:32:18Z</time>
      </trkpt>
      <trkpt lat="46.53795" lon="-1.78163">
        <ele>12</ele>
        <time>2018-04-28T01:33:18Z</time>
      </trkpt>
      <trkpt lat="46.53792" lon="-1.7817">
        <ele>12</ele>
        <time>2018-04-28T01:34:18Z</time>
      </trkpt>
      <trkpt lat="46.53789" lon="-1.78173">
        <ele>12</ele>
        <time>2018-04-28T01:35:18Z</time>
      </trkpt>
      <trkpt lat="46.53795" lon="-1.78185">
        <ele>12</ele>
        <time>2018-04-28T01:36:18Z</time>
      </trkpt>
      <trkpt lat="46.53799" lon="-1.78182">
        <ele>12</ele>
        <time>2018-04-28T01:37:18Z</time>
      </trkpt>
      <trkpt lat="46.53807" lon="-1.78203">
        <ele>12</ele>
        <time>2018-04-28T01:38:18Z</time>
      </trkpt>
      <trkpt lat="46.53807" lon="-1.78203">
        <ele>12</ele>
        <time>2018-04-28T01:39:18Z</time>
      </trkpt>
      <trkpt lat="46.53799" lon="-1.78182">
        <ele>12</ele>
        <time>2018-04-28T01:40:18Z</time>
      </trkpt>
      <trkpt lat="46.53795" lon="-1.78185">
        <ele>12</ele>
        <time>2018-04-28T01:41:18Z</time>
      </trkpt>
      <trkpt lat="46.53805" lon="-1.78209">
        <ele>12</ele>
        <time>2018-04-28T01:42:18Z</time>
      </trkpt>
      <trkpt lat="46.53826" lon="-1.78255">
        <ele>12</ele>
        <time>2018-04-28T01:43:18Z</time>
      </trkpt>
      <trkpt lat="46.53845" lon="-1.78281">
        <ele>12</ele>
        <time>2018-04-28T01:44:18Z</time>
      </trkpt>
      <trkpt lat="46.53853" lon="-1.78304">
        <ele>12</ele>
        <time>2018-04-28T01:45:18Z</time>
      </trkpt>
      <trkpt lat="46.53858" lon="-1.78343">
        <ele>12</ele>
        <time>2018-04-28T01:46:18Z</time>
      </trkpt>
      <trkpt lat="46.53862" lon="-1.78358">
        <ele>11</ele>
        <time>2018-04-28T01:47:18Z</time>
      </trkpt>
      <trkpt lat="46.53889" lon="-1.78458">
        <ele>9</ele>
        <time>2018-04-28T01:48:18Z</time>
      </trkpt>
      <trkpt lat="46.53899" lon="-1.78523">
        <ele>9</ele>
        <time>2018-04-28T01:49:18Z</time>
      </trkpt>
      <trkpt lat="46.53903" lon="-1.78582">
        <ele>9</ele>
        <time>2018-04-28T01:50:18Z</time>
      </trkpt>
      <trkpt lat="46.53906" lon="-1.78753">
        <ele>11</ele>
        <time>2018-04-28T01:51:18Z</time>
      </trkpt>
      <trkpt lat="46.53908" lon="-1.7878">
        <ele>10</ele>
        <time>2018-04-28T01:52:18Z</time>
      </trkpt>
      <trkpt lat="46.53921" lon="-1.78899">
        <ele>9</ele>
        <time>2018-04-28T01:53:18Z</time>
      </trkpt>
      <trkpt lat="46.53923" lon="-1.78935">
        <ele>9</ele>
        <time>2018-04-28T01:54:18Z</time>
      </trkpt>
      <trkpt lat="46.53932" lon="-1.79194">
        <ele>8</ele>
        <time>2018-04-28T01:55:18Z</time>
      </trkpt>
      <trkpt lat="46.53935" lon="-1.79227">
        <ele>8</ele>
        <time>2018-04-28T01:56:18Z</time>
      </trkpt>
      <trkpt lat="46.53948" lon="-1.79279">
        <ele>7</ele>
        <time>2018-04-28T01:57:18Z</time>
      </trkpt>
      <trkpt lat="46.53979" lon="-1.79379">
        <ele>7</ele>
        <time>2018-04-28T01:58:18Z</time>
      </trkpt>
      <trkpt lat="46.54" lon="-1.79462">
        <ele>6</ele>
        <time>2018-04-28T01:59:18Z</time>
      </trkpt>
      <trkpt lat="46.54016" lon="-1.79498">
        <ele>6</ele>
        <time>2018-04-28T02:00:18Z</time>
      </trkpt>
      <trkpt lat="46.54028" lon="-1.79513">
        <ele>6</ele>
        <time>2018-04-28T02:01:18Z</time>
      </trkpt>
      <trkpt lat="46.54032" lon="-1.79522">
        <ele>6</ele>
        <time>2018-04-28T02:02:18Z</time>
      </trkpt>
      <trkpt lat="46.54032" lon="-1.79526">
        <ele>6</ele>
        <time>2018-04-28T02:03:18Z</time>
      </trkpt>
      <trkpt lat="46.54047" lon="-1.79539">
        <ele>5</ele>
        <time>2018-04-28T02:04:18Z</time>
      </trkpt>
      <trkpt lat="46.5411" lon="-1.79573">
        <ele>5</ele>
        <time>2018-04-28T02:05:18Z</time>
      </trkpt>
      <trkpt lat="46.54132" lon="-1.79593">
        <ele>5</ele>
        <time>2018-04-28T02:06:18Z</time>
      </trkpt>
      <trkpt lat="46.54151" lon="-1.79613">
        <ele>5</ele>
        <time>2018-04-28T02:07:18Z</time>
      </trkpt>
      <trkpt lat="46.5417" lon="-1.79641">
        <ele>5</ele>
        <time>2018-04-28T02:08:18Z</time>
      </trkpt>
      <trkpt lat="46.54186" lon="-1.79673">
        <ele>5</ele>
        <time>2018-04-28T02:09:18Z</time>
      </trkpt>
      <trkpt lat="46.54278" lon="-1.79911">
        <ele>6</ele>
        <time>2018-04-28T02:10:18Z</time>
      </trkpt>
      <trkpt lat="46.5429" lon="-1.79962">
        <ele>5</ele>
        <time>2018-04-28T02:11:18Z</time>
      </trkpt>
      <trkpt lat="46.5431" lon="-1.80028">
        <ele>4</ele>
        <time>2018-04-28T02:12:18Z</time>
      </trkpt>
      <trkpt lat="46.54325" lon="-1.80063">
        <ele>4</ele>
        <time>2018-04-28T02:13:18Z</time>
      </trkpt>
      <trkpt lat="46.54335" lon="-1.80082">
        <ele>4</ele>
        <time>2018-04-28T02:14:18Z</time>
      </trkpt>
      <trkpt lat="46.54403" lon="-1.80184">
        <ele>4</ele>
        <time>2018-04-28T02:15:18Z</time>
      </trkpt>
      <trkpt lat="46.54442" lon="-1.80247">
        <ele>5</ele>
        <time>2018-04-28T02:16:18Z</time>
      </trkpt>
      <trkpt lat="46.54455" lon="-1.80263">
        <ele>5</ele>
        <time>2018-04-28T02:17:18Z</time>
      </trkpt>
      <trkpt lat="46.54512" lon="-1.80296">
        <ele>6</ele>
        <time>2018-04-28T02:18:18Z</time>
      </trkpt>
      <trkpt lat="46.54553" lon="-1.80326">
        <ele>6</ele>
        <time>2018-04-28T02:19:18Z</time>
      </trkpt>
      <trkpt lat="46.54624" lon="-1.80386">
        <ele>6</ele>
        <time>2018-04-28T02:20:18Z</time>
      </trkpt>
      <trkpt lat="46.54626" lon="-1.80383">
        <ele>6</ele>
        <time>2018-04-28T02:21:18Z</time>
      </trkpt>
      <trkpt lat="46.54633" lon="-1.80384">
        <ele>6</ele>
        <time>2018-04-28T02:22:18Z</time>
      </trkpt>
      <trkpt lat="46.54636" lon="-1.8039">
        <ele>6</ele>
        <time>2018-04-28T02:23:18Z</time>
      </trkpt>
      <trkpt lat="46.54635" lon="-1.80398">
        <ele>6</ele>
        <time>2018-04-28T02:24:18Z</time>
      </trkpt>
      <trkpt lat="46.54661" lon="-1.80419">
        <ele>6</ele>
        <time>2018-04-28T02:25:18Z</time>
      </trkpt>
      <trkpt lat="46.54671" lon="-1.80437">
        <ele>6</ele>
        <time>2018-04-28T02:26:18Z</time>
      </trkpt>
      <trkpt lat="46.54675" lon="-1.80435">
        <ele>6</ele>
        <time>2018-04-28T02:27:18Z</time>
      </trkpt>
      <trkpt lat="46.5468" lon="-1.80435">
        <ele>6</ele>
        <time>2018-04-28T02:28:18Z</time>
      </trkpt>
      <trkpt lat="46.54683" lon="-1.80439">
        <ele>6</ele>
        <time>2018-04-28T02:29:18Z</time>
      </trkpt>
      <trkpt lat="46.54685" lon="-1.80448">
        <ele>6</ele>
        <time>2018-04-28T02:30:18Z</time>
      </trkpt>
      <trkpt lat="46.54685" lon="-1.80451">
        <ele>6</ele>
        <time>2018-04-28T02:31:18Z</time>
      </trkpt>
      <trkpt lat="46.54695" lon="-1.80454">
        <ele>6</ele>
        <time>2018-04-28T02:32:18Z</time>
      </trkpt>
      <trkpt lat="46.54715" lon="-1.80466">
        <ele>6</ele>
        <time>2018-04-28T02:33:18Z</time>
      </trkpt>
      <trkpt lat="46.54899" lon="-1.80612">
        <ele>6</ele>
        <time>2018-04-28T02:34:18Z</time>
      </trkpt>
      <trkpt lat="46.54937" lon="-1.80636">
        <ele>6</ele>
        <time>2018-04-28T02:35:18Z</time>
      </trkpt>
      <trkpt lat="46.54966" lon="-1.80647">
        <ele>6</ele>
        <time>2018-04-28T02:36:18Z</time>
      </trkpt>
      <trkpt lat="46.55012" lon="-1.80656">
        <ele>6</ele>
        <time>2018-04-28T02:37:18Z</time>
      </trkpt>
      <trkpt lat="46.55054" lon="-1.80653">
        <ele>6</ele>
        <time>2018-04-28T02:38:18Z</time>
      </trkpt>
      <trkpt lat="46.55108" lon="-1.80644">
        <ele>5</ele>
        <time>2018-04-28T02:39:18Z</time>
      </trkpt>
      <trkpt lat="46.55145" lon="-1.80645">
        <ele>5</ele>
        <time>2018-04-28T02:40:18Z</time>
      </trkpt>
      <trkpt lat="46.55178" lon="-1.80655">
        <ele>4</ele>
        <time>2018-04-28T02:41:18Z</time>
      </trkpt>
      <trkpt lat="46.55208" lon="-1.80671">
        <ele>4</ele>
        <time>2018-04-28T02:42:18Z</time>
      </trkpt>
      <trkpt lat="46.55251" lon="-1.80707">
        <ele>4</ele>
        <time>2018-04-28T02:43:18Z</time>
      </trkpt>
      <trkpt lat="46.55306" lon="-1.80758">
        <ele>5</ele>
        <time>2018-04-28T02:44:18Z</time>
      </trkpt>
      <trkpt lat="46.55337" lon="-1.80793">
        <ele>5</ele>
        <time>2018-04-28T02:45:18Z</time>
      </trkpt>
      <trkpt lat="46.55355" lon="-1.80817">
        <ele>4</ele>
        <time>2018-04-28T02:46:18Z</time>
      </trkpt>
      <trkpt lat="46.55372" lon="-1.80845">
        <ele>4</ele>
        <time>2018-04-28T02:47:18Z</time>
      </trkpt>
      <trkpt lat="46.55395" lon="-1.80896">
        <ele>5</ele>
        <time>2018-04-28T02:48:18Z</time>
      </trkpt>
      <trkpt lat="46.55424" lon="-1.80983">
        <ele>6</ele>
        <time>2018-04-28T02:49:18Z</time>
      </trkpt>
      <trkpt lat="46.55439" lon="-1.81011">
        <ele>6</ele>
        <time>2018-04-28T02:50:18Z</time>
      </trkpt>
      <trkpt lat="46.55463" lon="-1.81038">
        <ele>6</ele>
        <time>2018-04-28T02:51:18Z</time>
      </trkpt>
      <trkpt lat="46.55496" lon="-1.81055">
        <ele>6</ele>
        <time>2018-04-28T02:52:18Z</time>
      </trkpt>
      <trkpt lat="46.55591" lon="-1.81096">
        <ele>5</ele>
        <time>2018-04-28T02:53:18Z</time>
      </trkpt>
      <trkpt lat="46.55599" lon="-1.81097">
        <ele>6</ele>
        <time>2018-04-28T02:54:18Z</time>
      </trkpt>
      <trkpt lat="46.55636" lon="-1.81112">
        <ele>7</ele>
        <time>2018-04-28T02:55:18Z</time>
      </trkpt>
      <trkpt lat="46.55677" lon="-1.81132">
        <ele>10</ele>
        <time>2018-04-28T02:56:18Z</time>
      </trkpt>
      <trkpt lat="46.55686" lon="-1.8114">
        <ele>10</ele>
        <time>2018-04-28T02:57:18Z</time>
      </trkpt>
      <trkpt lat="46.55726" lon="-1.81156">
        <ele>12</ele>
        <time>2018-04-28T02:58:18Z</time>
      </trkpt>
      <trkpt lat="46.55741" lon="-1.81155">
        <ele>12</ele>
        <time>2018-04-28T02:59:18Z</time>
      </trkpt>
      <trkpt lat="46.55753" lon="-1.81148">
        <ele>13</ele>
        <time>2018-04-28T03:00:18Z</time>
      </trkpt>
      <trkpt lat="46.55765" lon="-1.81137">
        <ele>13</ele>
        <time>2018-04-28T03:01:18Z</time>
      </trkpt>
      <trkpt lat="46.5584" lon="-1.81017">
        <ele>12</ele>
        <time>2018-04-28T03:02:18Z</time>
      </trkpt>
      <trkpt lat="46.55864" lon="-1.80999">
        <ele>11</ele>
        <time>2018-04-28T03:03:18Z</time>
      </trkpt>
      <trkpt lat="46.55885" lon="-1.81">
        <ele>11</ele>
        <time>2018-04-28T03:04:18Z</time>
      </trkpt>
      <trkpt lat="46.55904" lon="-1.81009">
        <ele>11</ele>
        <time>2018-04-28T03:05:18Z</time>
      </trkpt>
      <trkpt lat="46.56052" lon="-1.81169">
        <ele>14</ele>
        <time>2018-04-28T03:06:18Z</time>
      </trkpt>
      <trkpt lat="46.56092" lon="-1.81216">
        <ele>16</ele>
        <time>2018-04-28T03:07:18Z</time>
      </trkpt>
      <trkpt lat="46.56241" lon="-1.81427">
        <ele>19</ele>
        <time>2018-04-28T03:08:18Z</time>
      </trkpt>
      <trkpt lat="46.563" lon="-1.81491">
        <ele>16</ele>
        <time>2018-04-28T03:09:18Z</time>
      </trkpt>
      <trkpt lat="46.56408" lon="-1.81602">
        <ele>14</ele>
        <time>2018-04-28T03:10:18Z</time>
      </trkpt>
      <trkpt lat="46.56497" lon="-1.81691">
        <ele>15</ele>
        <time>2018-04-28T03:11:18Z</time>
      </trkpt>
      <trkpt lat="46.56616" lon="-1.81821">
        <ele>17</ele>
        <time>2018-04-28T03:12:18Z</time>
      </trkpt>
      <trkpt lat="46.56809" lon="-1.81999">
        <ele>12</ele>
        <time>2018-04-28T03:13:18Z</time>
      </trkpt>
      <trkpt lat="46.56843" lon="-1.82023">
        <ele>15</ele>
        <time>2018-04-28T03:14:18Z</time>
      </trkpt>
      <trkpt lat="46.56914" lon="-1.82064">
        <ele>15</ele>
        <time>2018-04-28T03:15:18Z</time>
      </trkpt>
      <trkpt lat="46.56995" lon="-1.82123">
        <ele>11</ele>
        <time>2018-04-28T03:16:18Z</time>
      </trkpt>
      <trkpt lat="46.57149" lon="-1.82252">
        <ele>12</ele>
        <time>2018-04-28T03:17:18Z</time>
      </trkpt>
      <trkpt lat="46.57184" lon="-1.82278">
        <ele>12</ele>
        <time>2018-04-28T03:18:18Z</time>
      </trkpt>
      <trkpt lat="46.57239" lon="-1.82313">
        <ele>12</ele>
        <time>2018-04-28T03:19:18Z</time>
      </trkpt>
      <trkpt lat="46.57259" lon="-1.82323">
        <ele>12</ele>
        <time>2018-04-28T03:20:18Z</time>
      </trkpt>
      <trkpt lat="46.57281" lon="-1.82331">
        <ele>12</ele>
        <time>2018-04-28T03:21:18Z</time>
      </trkpt>
      <trkpt lat="46.57325" lon="-1.82335">
        <ele>13</ele>
        <time>2018-04-28T03:22:18Z</time>
      </trkpt>
      <trkpt lat="46.57638" lon="-1.82303">
        <ele>12</ele>
        <time>2018-04-28T03:23:18Z</time>
      </trkpt>
      <trkpt lat="46.57686" lon="-1.82294">
        <ele>11</ele>
        <time>2018-04-28T03:24:18Z</time>
      </trkpt>
      <trkpt lat="46.57766" lon="-1.82287">
        <ele>10</ele>
        <time>2018-04-28T03:25:18Z</time>
      </trkpt>
      <trkpt lat="46.57799" lon="-1.8229">
        <ele>10</ele>
        <time>2018-04-28T03:26:18Z</time>
      </trkpt>
      <trkpt lat="46.57901" lon="-1.82307">
        <ele>11</ele>
        <time>2018-04-28T03:27:18Z</time>
      </trkpt>
      <trkpt lat="46.57969" lon="-1.82331">
        <ele>10</ele>
        <time>2018-04-28T03:28:18Z</time>
      </trkpt>
      <trkpt lat="46.58124" lon="-1.82379">
        <ele>12</ele>
        <time>2018-04-28T03:29:18Z</time>
      </trkpt>
      <trkpt lat="46.58174" lon="-1.82402">
        <ele>11</ele>
        <time>2018-04-28T03:30:18Z</time>
      </trkpt>
      <trkpt lat="46.58408" lon="-1.82676">
        <ele>6</ele>
        <time>2018-04-28T03:31:18Z</time>
      </trkpt>
      <trkpt lat="46.58472" lon="-1.82725">
        <ele>7</ele>
        <time>2018-04-28T03:32:18Z</time>
      </trkpt>
      <trkpt lat="46.58583" lon="-1.82796">
        <ele>8</ele>
        <time>2018-04-28T03:33:18Z</time>
      </trkpt>
      <trkpt lat="46.58692" lon="-1.82849">
        <ele>6</ele>
        <time>2018-04-28T03:34:18Z</time>
      </trkpt>
      <trkpt lat="46.58703" lon="-1.82858">
        <ele>6</ele>
        <time>2018-04-28T03:35:18Z</time>
      </trkpt>
      <trkpt lat="46.58708" lon="-1.82871">
        <ele>6</ele>
        <time>2018-04-28T03:36:18Z</time>
      </trkpt>
      <trkpt lat="46.5871" lon="-1.82891">
        <ele>7</ele>
        <time>2018-04-28T03:37:18Z</time>
      </trkpt>
      <trkpt lat="46.58708" lon="-1.82903">
        <ele>8</ele>
        <time>2018-04-28T03:38:18Z</time>
      </trkpt>
      <trkpt lat="46.58697" lon="-1.82927">
        <ele>10</ele>
        <time>2018-04-28T03:39:18Z</time>
      </trkpt>
      <trkpt lat="46.58696" lon="-1.82937">
        <ele>11</ele>
        <time>2018-04-28T03:40:18Z</time>
      </trkpt>
      <trkpt lat="46.58699" lon="-1.82951">
        <ele>11</ele>
        <time>2018-04-28T03:41:18Z</time>
      </trkpt>
      <trkpt lat="46.58731" lon="-1.83004">
        <ele>9</ele>
        <time>2018-04-28T03:42:18Z</time>
      </trkpt>
      <trkpt lat="46.58813" lon="-1.83172">
        <ele>7</ele>
        <time>2018-04-28T03:43:18Z</time>
      </trkpt>
      <trkpt lat="46.58831" lon="-1.83191">
        <ele>8</ele>
        <time>2018-04-28T03:44:18Z</time>
      </trkpt>
      <trkpt lat="46.58861" lon="-1.83208">
        <ele>9</ele>
        <time>2018-04-28T03:45:18Z</time>
      </trkpt>
      <trkpt lat="46.58861" lon="-1.83208">
        <ele>9</ele>
        <time>2018-04-28T03:46:18Z</time>
      </trkpt>
      <trkpt lat="46.59193" lon="-1.83321">
        <ele>3</ele>
        <time>2018-04-28T03:47:18Z</time>
      </trkpt>
      <trkpt lat="46.59226" lon="-1.83326">
        <ele>2</ele>
        <time>2018-04-28T03:48:18Z</time>
      </trkpt>
      <trkpt lat="46.59259" lon="-1.83322">
        <ele>2</ele>
        <time>2018-04-28T03:49:18Z</time>
      </trkpt>
      <trkpt lat="46.59266" lon="-1.83326">
        <ele>2</ele>
        <time>2018-04-28T03:50:18Z</time>
      </trkpt>
      <trkpt lat="46.59271" lon="-1.83331">
        <ele>2</ele>
        <time>2018-04-28T03:51:18Z</time>
      </trkpt>
      <trkpt lat="46.59279" lon="-1.83325">
        <ele>2</ele>
        <time>2018-04-28T03:52:18Z</time>
      </trkpt>
      <trkpt lat="46.59288" lon="-1.83324">
        <ele>2</ele>
        <time>2018-04-28T03:53:18Z</time>
      </trkpt>
      <trkpt lat="46.59329" lon="-1.83333">
        <ele>2</ele>
        <time>2018-04-28T03:54:18Z</time>
      </trkpt>
      <trkpt lat="46.59351" lon="-1.83342">
        <ele>2</ele>
        <time>2018-04-28T03:55:18Z</time>
      </trkpt>
      <trkpt lat="46.59419" lon="-1.83378">
        <ele>1</ele>
        <time>2018-04-28T03:56:18Z</time>
      </trkpt>
      <trkpt lat="46.59431" lon="-1.83379">
        <ele>2</ele>
        <time>2018-04-28T03:57:18Z</time>
      </trkpt>
      <trkpt lat="46.59443" lon="-1.83375">
        <ele>2</ele>
        <time>2018-04-28T03:58:18Z</time>
      </trkpt>
      <trkpt lat="46.59722" lon="-1.83194">
        <ele>4</ele>
        <time>2018-04-28T03:59:18Z</time>
      </trkpt>
      <trkpt lat="46.59824" lon="-1.83138">
        <ele>6</ele>
        <time>2018-04-28T04:00:18Z</time>
      </trkpt>
      <trkpt lat="46.59864" lon="-1.83121">
        <ele>7</ele>
        <time>2018-04-28T04:01:18Z</time>
      </trkpt>
      <trkpt lat="46.59863" lon="-1.83132">
        <ele>7</ele>
        <time>2018-04-28T04:02:18Z</time>
      </trkpt>
      <trkpt lat="46.59865" lon="-1.83209">
        <ele>5</ele>
        <time>2018-04-28T04:03:18Z</time>
      </trkpt>
      <trkpt lat="46.5987" lon="-1.83229">
        <ele>5</ele>
        <time>2018-04-28T04:04:18Z</time>
      </trkpt>
      <trkpt lat="46.5988" lon="-1.83246">
        <ele>5</ele>
        <time>2018-04-28T04:05:18Z</time>
      </trkpt>
      <trkpt lat="46.59908" lon="-1.83269">
        <ele>6</ele>
        <time>2018-04-28T04:06:18Z</time>
      </trkpt>
      <trkpt lat="46.59918" lon="-1.8328">
        <ele>6</ele>
        <time>2018-04-28T04:07:18Z</time>
      </trkpt>
      <trkpt lat="46.59929" lon="-1.83295">
        <ele>6</ele>
        <time>2018-04-28T04:08:18Z</time>
      </trkpt>
      <trkpt lat="46.59948" lon="-1.8333">
        <ele>6</ele>
        <time>2018-04-28T04:09:18Z</time>
      </trkpt>
      <trkpt lat="46.59963" lon="-1.83375">
        <ele>6</ele>
        <time>2018-04-28T04:10:18Z</time>
      </trkpt>
      <trkpt lat="46.59981" lon="-1.83419">
        <ele>7</ele>
        <time>2018-04-28T04:11:18Z</time>
      </trkpt>
      <trkpt lat="46.60049" lon="-1.83555">
        <ele>7</ele>
        <time>2018-04-28T04:12:18Z</time>
      </trkpt>
      <trkpt lat="46.60099" lon="-1.83625">
        <ele>8</ele>
        <time>2018-04-28T04:13:18Z</time>
      </trkpt>
      <trkpt lat="46.60112" lon="-1.83635">
        <ele>9</ele>
        <time>2018-04-28T04:14:18Z</time>
      </trkpt>
      <trkpt lat="46.60124" lon="-1.83638">
        <ele>9</ele>
        <time>2018-04-28T04:15:18Z</time>
      </trkpt>
      <trkpt lat="46.60153" lon="-1.83637">
        <ele>9</ele>
        <time>2018-04-28T04:16:18Z</time>
      </trkpt>
      <trkpt lat="46.60166" lon="-1.8364">
        <ele>9</ele>
        <time>2018-04-28T04:17:18Z</time>
      </trkpt>
      <trkpt lat="46.60179" lon="-1.83647">
        <ele>9</ele>
        <time>2018-04-28T04:18:18Z</time>
      </trkpt>
      <trkpt lat="46.60202" lon="-1.83671">
        <ele>9</ele>
        <time>2018-04-28T04:19:18Z</time>
      </trkpt>
      <trkpt lat="46.60252" lon="-1.83737">
        <ele>7</ele>
        <time>2018-04-28T04:20:18Z</time>
      </trkpt>
      <trkpt lat="46.60265" lon="-1.83758">
        <ele>7</ele>
        <time>2018-04-28T04:21:18Z</time>
      </trkpt>
      <trkpt lat="46.60284" lon="-1.83795">
        <ele>7</ele>
        <time>2018-04-28T04:22:18Z</time>
      </trkpt>
      <trkpt lat="46.60293" lon="-1.8382">
        <ele>7</ele>
        <time>2018-04-28T04:23:18Z</time>
      </trkpt>
      <trkpt lat="46.6031" lon="-1.83875">
        <ele>6</ele>
        <time>2018-04-28T04:24:18Z</time>
      </trkpt>
      <trkpt lat="46.60337" lon="-1.83974">
        <ele>5</ele>
        <time>2018-04-28T04:25:18Z</time>
      </trkpt>
      <trkpt lat="46.60345" lon="-1.83991">
        <ele>5</ele>
        <time>2018-04-28T04:26:18Z</time>
      </trkpt>
      <trkpt lat="46.60361" lon="-1.84009">
        <ele>5</ele>
        <time>2018-04-28T04:27:18Z</time>
      </trkpt>
      <trkpt lat="46.60401" lon="-1.84034">
        <ele>7</ele>
        <time>2018-04-28T04:28:18Z</time>
      </trkpt>
      <trkpt lat="46.6041" lon="-1.84043">
        <ele>7</ele>
        <time>2018-04-28T04:29:18Z</time>
      </trkpt>
      <trkpt lat="46.60413" lon="-1.84039">
        <ele>7</ele>
        <time>2018-04-28T04:30:18Z</time>
      </trkpt>
      <trkpt lat="46.60417" lon="-1.84038">
        <ele>7</ele>
        <time>2018-04-28T04:31:18Z</time>
      </trkpt>
      <trkpt lat="46.6042" lon="-1.8404">
        <ele>7</ele>
        <time>2018-04-28T04:32:18Z</time>
      </trkpt>
      <trkpt lat="46.60423" lon="-1.84045">
        <ele>7</ele>
        <time>2018-04-28T04:33:18Z</time>
      </trkpt>
      <trkpt lat="46.60426" lon="-1.84042">
        <ele>7</ele>
        <time>2018-04-28T04:34:18Z</time>
      </trkpt>
      <trkpt lat="46.60444" lon="-1.84038">
        <ele>8</ele>
        <time>2018-04-28T04:35:18Z</time>
      </trkpt>
      <trkpt lat="46.60474" lon="-1.84035">
        <ele>9</ele>
        <time>2018-04-28T04:36:18Z</time>
      </trkpt>
      <trkpt lat="46.60624" lon="-1.84028">
        <ele>9</ele>
        <time>2018-04-28T04:37:18Z</time>
      </trkpt>
      <trkpt lat="46.60635" lon="-1.84023">
        <ele>9</ele>
        <time>2018-04-28T04:38:18Z</time>
      </trkpt>
      <trkpt lat="46.60696" lon="-1.83974">
        <ele>12</ele>
        <time>2018-04-28T04:39:18Z</time>
      </trkpt>
      <trkpt lat="46.60717" lon="-1.84058">
        <ele>8</ele>
        <time>2018-04-28T04:40:18Z</time>
      </trkpt>
      <trkpt lat="46.60732" lon="-1.84105">
        <ele>4</ele>
        <time>2018-04-28T04:41:18Z</time>
      </trkpt>
      <trkpt lat="46.60745" lon="-1.84157">
        <ele>4</ele>
        <time>2018-04-28T04:42:18Z</time>
      </trkpt>
      <trkpt lat="46.6075" lon="-1.84169">
        <ele>2</ele>
        <time>2018-04-28T04:43:18Z</time>
      </trkpt>
      <trkpt lat="46.60753" lon="-1.84188">
        <ele>3</ele>
        <time>2018-04-28T04:44:18Z</time>
      </trkpt>
      <trkpt lat="46.60757" lon="-1.842">
        <ele>3</ele>
        <time>2018-04-28T04:45:18Z</time>
      </trkpt>
      <trkpt lat="46.6076" lon="-1.84215">
        <ele>4</ele>
        <time>2018-04-28T04:46:18Z</time>
      </trkpt>
      <trkpt lat="46.60765" lon="-1.84226">
        <ele>4</ele>
        <time>2018-04-28T04:47:18Z</time>
      </trkpt>
      <trkpt lat="46.60774" lon="-1.8427">
        <ele>6</ele>
        <time>2018-04-28T04:48:18Z</time>
      </trkpt>
      <trkpt lat="46.60778" lon="-1.84282">
        <ele>6</ele>
        <time>2018-04-28T04:49:18Z</time>
      </trkpt>
      <trkpt lat="46.60785" lon="-1.8428">
        <ele>7</ele>
        <time>2018-04-28T04:50:18Z</time>
      </trkpt>
      <trkpt lat="46.60815" lon="-1.84396">
        <ele>9</ele>
        <time>2018-04-28T04:51:18Z</time>
      </trkpt>
      <trkpt lat="46.6083" lon="-1.84435">
        <ele>10</ele>
        <time>2018-04-28T04:52:18Z</time>
      </trkpt>
      <trkpt lat="46.6086" lon="-1.8449">
        <ele>12</ele>
        <time>2018-04-28T04:53:18Z</time>
      </trkpt>
      <trkpt lat="46.60897" lon="-1.84538">
        <ele>14</ele>
        <time>2018-04-28T04:54:18Z</time>
      </trkpt>
      <trkpt lat="46.60911" lon="-1.84553">
        <ele>15</ele>
        <time>2018-04-28T04:55:18Z</time>
      </trkpt>
      <trkpt lat="46.60922" lon="-1.84564">
        <ele>15</ele>
        <time>2018-04-28T04:56:18Z</time>
      </trkpt>
      <trkpt lat="46.6105" lon="-1.84671">
        <ele>19</ele>
        <time>2018-04-28T04:57:18Z</time>
      </trkpt>
      <trkpt lat="46.61081" lon="-1.84699">
        <ele>19</ele>
        <time>2018-04-28T04:58:18Z</time>
      </trkpt>
      <trkpt lat="46.611" lon="-1.8473">
        <ele>19</ele>
        <time>2018-04-28T04:59:18Z</time>
      </trkpt>
      <trkpt lat="46.61116" lon="-1.84746">
        <ele>20</ele>
        <time>2018-04-28T05:00:18Z</time>
      </trkpt>
      <trkpt lat="46.61124" lon="-1.84743">
        <ele>19</ele>
        <time>2018-04-28T05:01:18Z</time>
      </trkpt>
      <trkpt lat="46.61132" lon="-1.84744">
        <ele>19</ele>
        <time>2018-04-28T05:02:18Z</time>
      </trkpt>
      <trkpt lat="46.61138" lon="-1.84749">
        <ele>19</ele>
        <time>2018-04-28T05:03:18Z</time>
      </trkpt>
      <trkpt lat="46.61145" lon="-1.84761">
        <ele>19</ele>
        <time>2018-04-28T05:04:18Z</time>
      </trkpt>
      <trkpt lat="46.61147" lon="-1.84772">
        <ele>19</ele>
        <time>2018-04-28T05:05:18Z</time>
      </trkpt>
      <trkpt lat="46.61147" lon="-1.84782">
        <ele>19</ele>
        <time>2018-04-28T05:06:18Z</time>
      </trkpt>
      <trkpt lat="46.61144" lon="-1.84792">
        <ele>20</ele>
        <time>2018-04-28T05:07:18Z</time>
      </trkpt>
      <trkpt lat="46.61139" lon="-1.84799">
        <ele>20</ele>
        <time>2018-04-28T05:08:18Z</time>
      </trkpt>
      <trkpt lat="46.61133" lon="-1.8483">
        <ele>20</ele>
        <time>2018-04-28T05:09:18Z</time>
      </trkpt>
      <trkpt lat="46.61133" lon="-1.84861">
        <ele>21</ele>
        <time>2018-04-28T05:10:18Z</time>
      </trkpt>
      <trkpt lat="46.61136" lon="-1.84927">
        <ele>22</ele>
        <time>2018-04-28T05:11:18Z</time>
      </trkpt>
      <trkpt lat="46.6114" lon="-1.84951">
        <ele>21</ele>
        <time>2018-04-28T05:12:18Z</time>
      </trkpt>
      <trkpt lat="46.61146" lon="-1.8497">
        <ele>21</ele>
        <time>2018-04-28T05:13:18Z</time>
      </trkpt>
      <trkpt lat="46.61157" lon="-1.84987">
        <ele>20</ele>
        <time>2018-04-28T05:14:18Z</time>
      </trkpt>
      <trkpt lat="46.612" lon="-1.85032">
        <ele>19</ele>
        <time>2018-04-28T05:15:18Z</time>
      </trkpt>
      <trkpt lat="46.61219" lon="-1.85058">
        <ele>18</ele>
        <time>2018-04-28T05:16:18Z</time>
      </trkpt>
      <trkpt lat="46.61266" lon="-1.85139">
        <ele>17</ele>
        <time>2018-04-28T05:17:18Z</time>
      </trkpt>
      <trkpt lat="46.61266" lon="-1.85139">
        <ele>17</ele>
        <time>2018-04-28T05:18:18Z</time>
      </trkpt>
      <trkpt lat="46.61275" lon="-1.85155">
        <ele>17</ele>
        <time>2018-04-28T05:19:18Z</time>
      </trkpt>
      <trkpt lat="46.61296" lon="-1.85182">
        <ele>16</ele>
        <time>2018-04-28T05:20:18Z</time>
      </trkpt>
      <trkpt lat="46.61336" lon="-1.85221">
        <ele>16</ele>
        <time>2018-04-28T05:21:18Z</time>
      </trkpt>
      <trkpt lat="46.61356" lon="-1.85249">
        <ele>15</ele>
        <time>2018-04-28T05:22:18Z</time>
      </trkpt>
      <trkpt lat="46.6137" lon="-1.85283">
        <ele>15</ele>
        <time>2018-04-28T05:23:18Z</time>
      </trkpt>
      <trkpt lat="46.61401" lon="-1.85419">
        <ele>14</ele>
        <time>2018-04-28T05:24:18Z</time>
      </trkpt>
      <trkpt lat="46.61416" lon="-1.85472">
        <ele>13</ele>
        <time>2018-04-28T05:25:18Z</time>
      </trkpt>
      <trkpt lat="46.61447" lon="-1.85545">
        <ele>11</ele>
        <time>2018-04-28T05:26:18Z</time>
      </trkpt>
      <trkpt lat="46.6147" lon="-1.85616">
        <ele>10</ele>
        <time>2018-04-28T05:27:18Z</time>
      </trkpt>
      <trkpt lat="46.61486" lon="-1.85682">
        <ele>9</ele>
        <time>2018-04-28T05:28:18Z</time>
      </trkpt>
      <trkpt lat="46.61494" lon="-1.85744">
        <ele>8</ele>
        <time>2018-04-28T05:29:18Z</time>
      </trkpt>
      <trkpt lat="46.61498" lon="-1.8576">
        <ele>8</ele>
        <time>2018-04-28T05:30:18Z</time>
      </trkpt>
      <trkpt lat="46.61503" lon="-1.85769">
        <ele>8</ele>
        <time>2018-04-28T05:31:18Z</time>
      </trkpt>
      <trkpt lat="46.61507" lon="-1.85772">
        <ele>8</ele>
        <time>2018-04-28T05:32:18Z</time>
      </trkpt>
      <trkpt lat="46.61512" lon="-1.85784">
        <ele>8</ele>
        <time>2018-04-28T05:33:18Z</time>
      </trkpt>
      <trkpt lat="46.61513" lon="-1.85791">
        <ele>7</ele>
        <time>2018-04-28T05:34:18Z</time>
      </trkpt>
      <trkpt lat="46.61518" lon="-1.85802">
        <ele>7</ele>
        <time>2018-04-28T05:35:18Z</time>
      </trkpt>
      <trkpt lat="46.61543" lon="-1.85843">
        <ele>7</ele>
        <time>2018-04-28T05:36:18Z</time>
      </trkpt>
      <trkpt lat="46.61577" lon="-1.85913">
        <ele>7</ele>
        <time>2018-04-28T05:37:18Z</time>
      </trkpt>
      <trkpt lat="46.6167" lon="-1.86041">
        <ele>8</ele>
        <time>2018-04-28T05:38:18Z</time>
      </trkpt>
      <trkpt lat="46.61701" lon="-1.86092">
        <ele>8</ele>
        <time>2018-04-28T05:39:18Z</time>
      </trkpt>
      <trkpt lat="46.61735" lon="-1.86155">
        <ele>8</ele>
        <time>2018-04-28T05:40:18Z</time>
      </trkpt>
      <trkpt lat="46.61759" lon="-1.8621">
        <ele>8</ele>
        <time>2018-04-28T05:41:18Z</time>
      </trkpt>
      <trkpt lat="46.61763" lon="-1.86232">
        <ele>8</ele>
        <time>2018-04-28T05:42:18Z</time>
      </trkpt>
      <trkpt lat="46.61767" lon="-1.86306">
        <ele>8</ele>
        <time>2018-04-28T05:43:18Z</time>
      </trkpt>
      <trkpt lat="46.61763" lon="-1.86335">
        <ele>8</ele>
        <time>2018-04-28T05:44:18Z</time>
      </trkpt>
      <trkpt lat="46.61756" lon="-1.8635">
        <ele>8</ele>
        <time>2018-04-28T05:45:18Z</time>
      </trkpt>
      <trkpt lat="46.61746" lon="-1.86361">
        <ele>8</ele>
        <time>2018-04-28T05:46:18Z</time>
      </trkpt>
      <trkpt lat="46.61704" lon="-1.86391">
        <ele>9</ele>
        <time>2018-04-28T05:47:18Z</time>
      </trkpt>
      <trkpt lat="46.61677" lon="-1.86407">
        <ele>9</ele>
        <time>2018-04-28T05:48:18Z</time>
      </trkpt>
      <trkpt lat="46.61652" lon="-1.86427">
        <ele>8</ele>
        <time>2018-04-28T05:49:18Z</time>
      </trkpt>
      <trkpt lat="46.61641" lon="-1.86445">
        <ele>8</ele>
        <time>2018-04-28T05:50:18Z</time>
      </trkpt>
      <trkpt lat="46.61638" lon="-1.86457">
        <ele>7</ele>
        <time>2018-04-28T05:51:18Z</time>
      </trkpt>
      <trkpt lat="46.61632" lon="-1.86454">
        <ele>7</ele>
        <time>2018-04-28T05:52:18Z</time>
      </trkpt>
      <trkpt lat="46.61627" lon="-1.86462">
        <ele>7</ele>
        <time>2018-04-28T05:53:18Z</time>
      </trkpt>
      <trkpt lat="46.61604" lon="-1.86487">
        <ele>6</ele>
        <time>2018-04-28T05:54:18Z</time>
      </trkpt>
      <trkpt lat="46.61604" lon="-1.86491">
        <ele>6</ele>
        <time>2018-04-28T05:55:18Z</time>
      </trkpt>
      <trkpt lat="46.61616" lon="-1.86546">
        <ele>5</ele>
        <time>2018-04-28T05:56:18Z</time>
      </trkpt>
      <trkpt lat="46.61612" lon="-1.8661">
        <ele>4</ele>
        <time>2018-04-28T05:57:18Z</time>
      </trkpt>
      <trkpt lat="46.61609" lon="-1.86632">
        <ele>3</ele>
        <time>2018-04-28T05:58:18Z</time>
      </trkpt>
      <trkpt lat="46.6161" lon="-1.86657">
        <ele>3</ele>
        <time>2018-04-28T05:59:18Z</time>
      </trkpt>
      <trkpt lat="46.61612" lon="-1.86672">
        <ele>3</ele>
        <time>2018-04-28T06:00:18Z</time>
      </trkpt>
      <trkpt lat="46.61624" lon="-1.86701">
        <ele>4</ele>
        <time>2018-04-28T06:01:18Z</time>
      </trkpt>
      <trkpt lat="46.61644" lon="-1.86827">
        <ele>4</ele>
        <time>2018-04-28T06:02:18Z</time>
      </trkpt>
      <trkpt lat="46.61654" lon="-1.86869">
        <ele>4</ele>
        <time>2018-04-28T06:03:18Z</time>
      </trkpt>
      <trkpt lat="46.61659" lon="-1.86889">
        <ele>4</ele>
        <time>2018-04-28T06:04:18Z</time>
      </trkpt>
      <trkpt lat="46.61675" lon="-1.86922">
        <ele>4</ele>
        <time>2018-04-28T06:05:18Z</time>
      </trkpt>
      <trkpt lat="46.61677" lon="-1.86932">
        <ele>4</ele>
        <time>2018-04-28T06:06:18Z</time>
      </trkpt>
      <trkpt lat="46.61684" lon="-1.86947">
        <ele>4</ele>
        <time>2018-04-28T06:07:18Z</time>
      </trkpt>
      <trkpt lat="46.61693" lon="-1.86963">
        <ele>4</ele>
        <time>2018-04-28T06:08:18Z</time>
      </trkpt>
      <trkpt lat="46.61704" lon="-1.86975">
        <ele>5</ele>
        <time>2018-04-28T06:09:18Z</time>
      </trkpt>
      <trkpt lat="46.61737" lon="-1.87008">
        <ele>4</ele>
        <time>2018-04-28T06:10:18Z</time>
      </trkpt>
      <trkpt lat="46.61737" lon="-1.87008">
        <ele>4</ele>
        <time>2018-04-28T06:11:18Z</time>
      </trkpt>
      <trkpt lat="46.61741" lon="-1.87015">
        <ele>4</ele>
        <time>2018-04-28T06:12:18Z</time>
      </trkpt>
      <trkpt lat="46.61744" lon="-1.87031">
        <ele>4</ele>
        <time>2018-04-28T06:13:18Z</time>
      </trkpt>
      <trkpt lat="46.61752" lon="-1.87041">
        <ele>6</ele>
        <time>2018-04-28T06:14:18Z</time>
      </trkpt>
      <trkpt lat="46.61808" lon="-1.87098">
        <ele>5</ele>
        <time>2018-04-28T06:15:18Z</time>
      </trkpt>
      <trkpt lat="46.61813" lon="-1.871">
        <ele>5</ele>
        <time>2018-04-28T06:16:18Z</time>
      </trkpt>
      <trkpt lat="46.61824" lon="-1.87096">
        <ele>6</ele>
        <time>2018-04-28T06:17:18Z</time>
      </trkpt>
      <trkpt lat="46.61833" lon="-1.87098">
        <ele>6</ele>
        <time>2018-04-28T06:18:18Z</time>
      </trkpt>
      <trkpt lat="46.61845" lon="-1.8711">
        <ele>6</ele>
        <time>2018-04-28T06:19:18Z</time>
      </trkpt>
      <trkpt lat="46.61862" lon="-1.87144">
        <ele>5</ele>
        <time>2018-04-28T06:20:18Z</time>
      </trkpt>
      <trkpt lat="46.61891" lon="-1.87168">
        <ele>6</ele>
        <time>2018-04-28T06:21:18Z</time>
      </trkpt>
      <trkpt lat="46.61895" lon="-1.87171">
        <ele>6</ele>
        <time>2018-04-28T06:22:18Z</time>
      </trkpt>
      <trkpt lat="46.61905" lon="-1.87172">
        <ele>6</ele>
        <time>2018-04-28T06:23:18Z</time>
      </trkpt>
      <trkpt lat="46.61916" lon="-1.87181">
        <ele>6</ele>
        <time>2018-04-28T06:24:18Z</time>
      </trkpt>
      <trkpt lat="46.61996" lon="-1.87229">
        <ele>6</ele>
        <time>2018-04-28T06:25:18Z</time>
      </trkpt>
      <trkpt lat="46.62004" lon="-1.87231">
        <ele>6</ele>
        <time>2018-04-28T06:26:18Z</time>
      </trkpt>
      <trkpt lat="46.62023" lon="-1.87241">
        <ele>6</ele>
        <time>2018-04-28T06:27:18Z</time>
      </trkpt>
      <trkpt lat="46.62045" lon="-1.87249">
        <ele>6</ele>
        <time>2018-04-28T06:28:18Z</time>
      </trkpt>
      <trkpt lat="46.62054" lon="-1.87249">
        <ele>6</ele>
        <time>2018-04-28T06:29:18Z</time>
      </trkpt>
      <trkpt lat="46.62071" lon="-1.87242">
        <ele>6</ele>
        <time>2018-04-28T06:30:18Z</time>
      </trkpt>
      <trkpt lat="46.6209" lon="-1.87229">
        <ele>6</ele>
        <time>2018-04-28T06:31:18Z</time>
      </trkpt>
      <trkpt lat="46.62118" lon="-1.87217">
        <ele>7</ele>
        <time>2018-04-28T06:32:18Z</time>
      </trkpt>
      <trkpt lat="46.62138" lon="-1.87216">
        <ele>8</ele>
        <time>2018-04-28T06:33:18Z</time>
      </trkpt>
      <trkpt lat="46.62174" lon="-1.87235">
        <ele>8</ele>
        <time>2018-04-28T06:34:18Z</time>
      </trkpt>
      <trkpt lat="46.62177" lon="-1.87229">
        <ele>8</ele>
        <time>2018-04-28T06:35:18Z</time>
      </trkpt>
      <trkpt lat="46.62182" lon="-1.87231">
        <ele>8</ele>
        <time>2018-04-28T06:36:18Z</time>
      </trkpt>
      <trkpt lat="46.6227" lon="-1.87293">
        <ele>6</ele>
        <time>2018-04-28T06:37:18Z</time>
      </trkpt>
      <trkpt lat="46.62326" lon="-1.87325">
        <ele>8</ele>
        <time>2018-04-28T06:38:18Z</time>
      </trkpt>
      <trkpt lat="46.62402" lon="-1.87354">
        <ele>7</ele>
        <time>2018-04-28T06:39:18Z</time>
      </trkpt>
      <trkpt lat="46.62454" lon="-1.87365">
        <ele>7</ele>
        <time>2018-04-28T06:40:18Z</time>
      </trkpt>
      <trkpt lat="46.62502" lon="-1.8736">
        <ele>7</ele>
        <time>2018-04-28T06:41:18Z</time>
      </trkpt>
      <trkpt lat="46.62562" lon="-1.87369">
        <ele>7</ele>
        <time>2018-04-28T06:42:18Z</time>
      </trkpt>
      <trkpt lat="46.62613" lon="-1.87352">
        <ele>7</ele>
        <time>2018-04-28T06:43:18Z</time>
      </trkpt>
      <trkpt lat="46.62615" lon="-1.87343">
        <ele>7</ele>
        <time>2018-04-28T06:44:18Z</time>
      </trkpt>
      <trkpt lat="46.62622" lon="-1.87341">
        <ele>7</ele>
        <time>2018-04-28T06:45:18Z</time>
      </trkpt>
      <trkpt lat="46.62627" lon="-1.87347">
        <ele>7</ele>
        <time>2018-04-28T06:46:18Z</time>
      </trkpt>
      <trkpt lat="46.62626" lon="-1.87356">
        <ele>7</ele>
        <time>2018-04-28T06:47:18Z</time>
      </trkpt>
      <trkpt lat="46.62628" lon="-1.87358">
        <ele>7</ele>
        <time>2018-04-28T06:48:18Z</time>
      </trkpt>
      <trkpt lat="46.62674" lon="-1.87372">
        <ele>7</ele>
        <time>2018-04-28T06:49:18Z</time>
      </trkpt>
      <trkpt lat="46.62681" lon="-1.87379">
        <ele>7</ele>
        <time>2018-04-28T06:50:18Z</time>
      </trkpt>
      <trkpt lat="46.62713" lon="-1.87424">
        <ele>8</ele>
        <time>2018-04-28T06:51:18Z</time>
      </trkpt>
      <trkpt lat="46.62738" lon="-1.87441">
        <ele>8</ele>
        <time>2018-04-28T06:52:18Z</time>
      </trkpt>
      <trkpt lat="46.62802" lon="-1.87478">
        <ele>9</ele>
        <time>2018-04-28T06:53:18Z</time>
      </trkpt>
      <trkpt lat="46.62837" lon="-1.87504">
        <ele>9</ele>
        <time>2018-04-28T06:54:18Z</time>
      </trkpt>
      <trkpt lat="46.62858" lon="-1.87529">
        <ele>8</ele>
        <time>2018-04-28T06:55:18Z</time>
      </trkpt>
      <trkpt lat="46.62895" lon="-1.87599">
        <ele>8</ele>
        <time>2018-04-28T06:56:18Z</time>
      </trkpt>
      <trkpt lat="46.62992" lon="-1.87771">
        <ele>10</ele>
        <time>2018-04-28T06:57:18Z</time>
      </trkpt>
      <trkpt lat="46.63047" lon="-1.87955">
        <ele>10</ele>
        <time>2018-04-28T06:58:18Z</time>
      </trkpt>
      <trkpt lat="46.63072" lon="-1.88003">
        <ele>11</ele>
        <time>2018-04-28T06:59:18Z</time>
      </trkpt>
      <trkpt lat="46.63118" lon="-1.88074">
        <ele>9</ele>
        <time>2018-04-28T07:00:18Z</time>
      </trkpt>
      <trkpt lat="46.63146" lon="-1.88128">
        <ele>9</ele>
        <time>2018-04-28T07:01:18Z</time>
      </trkpt>
      <trkpt lat="46.6316" lon="-1.88204">
        <ele>8</ele>
        <time>2018-04-28T07:02:18Z</time>
      </trkpt>
      <trkpt lat="46.63195" lon="-1.88438">
        <ele>6</ele>
        <time>2018-04-28T07:03:18Z</time>
      </trkpt>
      <trkpt lat="46.63206" lon="-1.88468">
        <ele>5</ele>
        <time>2018-04-28T07:04:18Z</time>
      </trkpt>
      <trkpt lat="46.633" lon="-1.88644">
        <ele>6</ele>
        <time>2018-04-28T07:05:18Z</time>
      </trkpt>
      <trkpt lat="46.63313" lon="-1.88664">
        <ele>6</ele>
        <time>2018-04-28T07:06:18Z</time>
      </trkpt>
      <trkpt lat="46.63329" lon="-1.88684">
        <ele>6</ele>
        <time>2018-04-28T07:07:18Z</time>
      </trkpt>
      <trkpt lat="46.63391" lon="-1.88741">
        <ele>7</ele>
        <time>2018-04-28T07:08:18Z</time>
      </trkpt>
      <trkpt lat="46.63405" lon="-1.88758">
        <ele>7</ele>
        <time>2018-04-28T07:09:18Z</time>
      </trkpt>
      <trkpt lat="46.63417" lon="-1.8878">
        <ele>7</ele>
        <time>2018-04-28T07:10:18Z</time>
      </trkpt>
      <trkpt lat="46.63523" lon="-1.89031">
        <ele>6</ele>
        <time>2018-04-28T07:11:18Z</time>
      </trkpt>
      <trkpt lat="46.63531" lon="-1.89049">
        <ele>6</ele>
        <time>2018-04-28T07:12:18Z</time>
      </trkpt>
      <trkpt lat="46.63543" lon="-1.89064">
        <ele>6</ele>
        <time>2018-04-28T07:13:18Z</time>
      </trkpt>
      <trkpt lat="46.63554" lon="-1.89073">
        <ele>7</ele>
        <time>2018-04-28T07:14:18Z</time>
      </trkpt>
      <trkpt lat="46.63686" lon="-1.89166">
        <ele>8</ele>
        <time>2018-04-28T07:15:18Z</time>
      </trkpt>
      <trkpt lat="46.63788" lon="-1.89241">
        <ele>8</ele>
        <time>2018-04-28T07:16:18Z</time>
      </trkpt>
      <trkpt lat="46.63801" lon="-1.89254">
        <ele>7</ele>
        <time>2018-04-28T07:17:18Z</time>
      </trkpt>
      <trkpt lat="46.63918" lon="-1.8942">
        <ele>5</ele>
        <time>2018-04-28T07:18:18Z</time>
      </trkpt>
      <trkpt lat="46.63925" lon="-1.89427">
        <ele>5</ele>
        <time>2018-04-28T07:19:18Z</time>
      </trkpt>
      <trkpt lat="46.63933" lon="-1.89428">
        <ele>5</ele>
        <time>2018-04-28T07:20:18Z</time>
      </trkpt>
      <trkpt lat="46.63995" lon="-1.89423">
        <ele>7</ele>
        <time>2018-04-28T07:21:18Z</time>
      </trkpt>
      <trkpt lat="46.6401" lon="-1.89416">
        <ele>7</ele>
        <time>2018-04-28T07:22:18Z</time>
      </trkpt>
      <trkpt lat="46.64037" lon="-1.89358">
        <ele>9</ele>
        <time>2018-04-28T07:23:18Z</time>
      </trkpt>
      <trkpt lat="46.64055" lon="-1.893">
        <ele>10</ele>
        <time>2018-04-28T07:24:18Z</time>
      </trkpt>
      <trkpt lat="46.64055" lon="-1.893">
        <ele>10</ele>
        <time>2018-04-28T07:25:18Z</time>
      </trkpt>
      <trkpt lat="46.64097" lon="-1.89225">
        <ele>12</ele>
        <time>2018-04-28T07:26:18Z</time>
      </trkpt>
      <trkpt lat="46.64123" lon="-1.89167">
        <ele>12</ele>
        <time>2018-04-28T07:27:18Z</time>
      </trkpt>
      <trkpt lat="46.64132" lon="-1.89154">
        <ele>13</ele>
        <time>2018-04-28T07:28:18Z</time>
      </trkpt>
      <trkpt lat="46.64172" lon="-1.89116">
        <ele>13</ele>
        <time>2018-04-28T07:29:18Z</time>
      </trkpt>
      <trkpt lat="46.64202" lon="-1.89093">
        <ele>14</ele>
        <time>2018-04-28T07:30:18Z</time>
      </trkpt>
      <trkpt lat="46.6421" lon="-1.89078">
        <ele>14</ele>
        <time>2018-04-28T07:31:18Z</time>
      </trkpt>
      <trkpt lat="46.64219" lon="-1.89051">
        <ele>14</ele>
        <time>2018-04-28T07:32:18Z</time>
      </trkpt>
      <trkpt lat="46.64223" lon="-1.89047">
        <ele>14</ele>
        <time>2018-04-28T07:33:18Z</time>
      </trkpt>
      <trkpt lat="46.64275" lon="-1.89049">
        <ele>15</ele>
        <time>2018-04-28T07:34:18Z</time>
      </trkpt>
      <trkpt lat="46.64414" lon="-1.89029">
        <ele>16</ele>
        <time>2018-04-28T07:35:18Z</time>
      </trkpt>
      <trkpt lat="46.64447" lon="-1.89027">
        <ele>16</ele>
        <time>2018-04-28T07:36:18Z</time>
      </trkpt>
      <trkpt lat="46.64478" lon="-1.89028">
        <ele>16</ele>
        <time>2018-04-28T07:37:18Z</time>
      </trkpt>
      <trkpt lat="46.64519" lon="-1.89037">
        <ele>16</ele>
        <time>2018-04-28T07:38:18Z</time>
      </trkpt>
      <trkpt lat="46.64569" lon="-1.8903">
        <ele>16</ele>
        <time>2018-04-28T07:39:18Z</time>
      </trkpt>
      <trkpt lat="46.64585" lon="-1.89024">
        <ele>16</ele>
        <time>2018-04-28T07:40:18Z</time>
      </trkpt>
      <trkpt lat="46.64591" lon="-1.8902">
        <ele>16</ele>
        <time>2018-04-28T07:41:18Z</time>
      </trkpt>
      <trkpt lat="46.6459" lon="-1.89013">
        <ele>15</ele>
        <time>2018-04-28T07:42:18Z</time>
      </trkpt>
      <trkpt lat="46.6459" lon="-1.89006">
        <ele>15</ele>
        <time>2018-04-28T07:43:18Z</time>
      </trkpt>
      <trkpt lat="46.64593" lon="-1.89">
        <ele>15</ele>
        <time>2018-04-28T07:44:18Z</time>
      </trkpt>
      <trkpt lat="46.64597" lon="-1.88997">
        <ele>15</ele>
        <time>2018-04-28T07:45:18Z</time>
      </trkpt>
      <trkpt lat="46.64604" lon="-1.88999">
        <ele>15</ele>
        <time>2018-04-28T07:46:18Z</time>
      </trkpt>
      <trkpt lat="46.64608" lon="-1.89006">
        <ele>15</ele>
        <time>2018-04-28T07:47:18Z</time>
      </trkpt>
      <trkpt lat="46.64609" lon="-1.89011">
        <ele>16</ele>
        <time>2018-04-28T07:48:18Z</time>
      </trkpt>
      <trkpt lat="46.64614" lon="-1.89018">
        <ele>16</ele>
        <time>2018-04-28T07:49:18Z</time>
      </trkpt>
      <trkpt lat="46.64624" lon="-1.89026">
        <ele>16</ele>
        <time>2018-04-28T07:50:18Z</time>
      </trkpt>
      <trkpt lat="46.64639" lon="-1.89038">
        <ele>16</ele>
        <time>2018-04-28T07:51:18Z</time>
      </trkpt>
      <trkpt lat="46.64668" lon="-1.89054">
        <ele>17</ele>
        <time>2018-04-28T07:52:18Z</time>
      </trkpt>
      <trkpt lat="46.64668" lon="-1.89054">
        <ele>17</ele>
        <time>2018-04-28T07:53:18Z</time>
      </trkpt>
      <trkpt lat="46.64717" lon="-1.89082">
        <ele>18</ele>
        <time>2018-04-28T07:54:18Z</time>
      </trkpt>
      <trkpt lat="46.64816" lon="-1.89133">
        <ele>17</ele>
        <time>2018-04-28T07:55:18Z</time>
      </trkpt>
      <trkpt lat="46.65003" lon="-1.89234">
        <ele>14</ele>
        <time>2018-04-28T07:56:18Z</time>
      </trkpt>
      <trkpt lat="46.65207" lon="-1.89346">
        <ele>8</ele>
        <time>2018-04-28T07:57:18Z</time>
      </trkpt>
      <trkpt lat="46.65225" lon="-1.89359">
        <ele>7</ele>
        <time>2018-04-28T07:58:18Z</time>
      </trkpt>
      <trkpt lat="46.6527" lon="-1.89399">
        <ele>6</ele>
        <time>2018-04-28T07:59:18Z</time>
      </trkpt>
      <trkpt lat="46.65368" lon="-1.89503">
        <ele>6</ele>
        <time>2018-04-28T08:00:18Z</time>
      </trkpt>
      <trkpt lat="46.65461" lon="-1.89586">
        <ele>8</ele>
        <time>2018-04-28T08:01:18Z</time>
      </trkpt>
      <trkpt lat="46.65555" lon="-1.89654">
        <ele>7</ele>
        <time>2018-04-28T08:02:18Z</time>
      </trkpt>
      <trkpt lat="46.66202" lon="-1.90066">
        <ele>3</ele>
        <time>2018-04-28T08:03:18Z</time>
      </trkpt>
      <trkpt lat="46.66245" lon="-1.90089">
        <ele>2</ele>
        <time>2018-04-28T08:04:18Z</time>
      </trkpt>
      <trkpt lat="46.66281" lon="-1.901">
        <ele>1</ele>
        <time>2018-04-28T08:05:18Z</time>
      </trkpt>
      <trkpt lat="46.66751" lon="-1.90212">
        <ele>5</ele>
        <time>2018-04-28T08:06:18Z</time>
      </trkpt>
      <trkpt lat="46.66752" lon="-1.90206">
        <ele>6</ele>
        <time>2018-04-28T08:07:18Z</time>
      </trkpt>
      <trkpt lat="46.6676" lon="-1.90189">
        <ele>6</ele>
        <time>2018-04-28T08:08:18Z</time>
      </trkpt>
      <trkpt lat="46.66772" lon="-1.90204">
        <ele>6</ele>
        <time>2018-04-28T08:09:18Z</time>
      </trkpt>
      <trkpt lat="46.66796" lon="-1.9021">
        <ele>5</ele>
        <time>2018-04-28T08:10:18Z</time>
      </trkpt>
      <trkpt lat="46.66804" lon="-1.90205">
        <ele>6</ele>
        <time>2018-04-28T08:11:18Z</time>
      </trkpt>
      <trkpt lat="46.66808" lon="-1.90205">
        <ele>6</ele>
        <time>2018-04-28T08:12:18Z</time>
      </trkpt>
      <trkpt lat="46.66858" lon="-1.9022">
        <ele>5</ele>
        <time>2018-04-28T08:13:18Z</time>
      </trkpt>
      <trkpt lat="46.66957" lon="-1.90281">
        <ele>6</ele>
        <time>2018-04-28T08:14:18Z</time>
      </trkpt>
      <trkpt lat="46.66976" lon="-1.90306">
        <ele>6</ele>
        <time>2018-04-28T08:15:18Z</time>
      </trkpt>
      <trkpt lat="46.66983" lon="-1.90304">
        <ele>6</ele>
        <time>2018-04-28T08:16:18Z</time>
      </trkpt>
      <trkpt lat="46.66991" lon="-1.90306">
        <ele>6</ele>
        <time>2018-04-28T08:17:18Z</time>
      </trkpt>
      <trkpt lat="46.66998" lon="-1.90313">
        <ele>6</ele>
        <time>2018-04-28T08:18:18Z</time>
      </trkpt>
      <trkpt lat="46.67002" lon="-1.90323">
        <ele>6</ele>
        <time>2018-04-28T08:19:18Z</time>
      </trkpt>
      <trkpt lat="46.67003" lon="-1.90334">
        <ele>6</ele>
        <time>2018-04-28T08:20:18Z</time>
      </trkpt>
      <trkpt lat="46.66998" lon="-1.9035">
        <ele>6</ele>
        <time>2018-04-28T08:21:18Z</time>
      </trkpt>
      <trkpt lat="46.67004" lon="-1.90377">
        <ele>6</ele>
        <time>2018-04-28T08:22:18Z</time>
      </trkpt>
      <trkpt lat="46.67011" lon="-1.90391">
        <ele>5</ele>
        <time>2018-04-28T08:23:18Z</time>
      </trkpt>
      <trkpt lat="46.67058" lon="-1.9045">
        <ele>5</ele>
        <time>2018-04-28T08:24:18Z</time>
      </trkpt>
      <trkpt lat="46.67089" lon="-1.90499">
        <ele>5</ele>
        <time>2018-04-28T08:25:18Z</time>
      </trkpt>
      <trkpt lat="46.67116" lon="-1.90534">
        <ele>5</ele>
        <time>2018-04-28T08:26:18Z</time>
      </trkpt>
      <trkpt lat="46.67176" lon="-1.9062">
        <ele>5</ele>
        <time>2018-04-28T08:27:18Z</time>
      </trkpt>
      <trkpt lat="46.67176" lon="-1.9062">
        <ele>5</ele>
        <time>2018-04-28T08:28:18Z</time>
      </trkpt>
      <trkpt lat="46.67311" lon="-1.9081">
        <ele>2</ele>
        <time>2018-04-28T08:29:18Z</time>
      </trkpt>
      <trkpt lat="46.67342" lon="-1.9085">
        <ele>2</ele>
        <time>2018-04-28T08:30:18Z</time>
      </trkpt>
      <trkpt lat="46.67354" lon="-1.90864">
        <ele>2</ele>
        <time>2018-04-28T08:31:18Z</time>
      </trkpt>
      <trkpt lat="46.67399" lon="-1.90901">
        <ele>3</ele>
        <time>2018-04-28T08:32:18Z</time>
      </trkpt>
      <trkpt lat="46.67421" lon="-1.90912">
        <ele>3</ele>
        <time>2018-04-28T08:33:18Z</time>
      </trkpt>
      <trkpt lat="46.67429" lon="-1.90912">
        <ele>3</ele>
        <time>2018-04-28T08:34:18Z</time>
      </trkpt>
      <trkpt lat="46.67437" lon="-1.90909">
        <ele>3</ele>
        <time>2018-04-28T08:35:18Z</time>
      </trkpt>
      <trkpt lat="46.67446" lon="-1.90912">
        <ele>3</ele>
        <time>2018-04-28T08:36:18Z</time>
      </trkpt>
      <trkpt lat="46.67454" lon="-1.90919">
        <ele>3</ele>
        <time>2018-04-28T08:37:18Z</time>
      </trkpt>
      <trkpt lat="46.67459" lon="-1.90931">
        <ele>4</ele>
        <time>2018-04-28T08:38:18Z</time>
      </trkpt>
      <trkpt lat="46.6746" lon="-1.90947">
        <ele>4</ele>
        <time>2018-04-28T08:39:18Z</time>
      </trkpt>
      <trkpt lat="46.67456" lon="-1.9096">
        <ele>4</ele>
        <time>2018-04-28T08:40:18Z</time>
      </trkpt>
      <trkpt lat="46.67449" lon="-1.9097">
        <ele>4</ele>
        <time>2018-04-28T08:41:18Z</time>
      </trkpt>
      <trkpt lat="46.6745" lon="-1.91001">
        <ele>4</ele>
        <time>2018-04-28T08:42:18Z</time>
      </trkpt>
      <trkpt lat="46.67454" lon="-1.91009">
        <ele>4</ele>
        <time>2018-04-28T08:43:18Z</time>
      </trkpt>
      <trkpt lat="46.68157" lon="-1.92004">
        <ele>8</ele>
        <time>2018-04-28T08:44:18Z</time>
      </trkpt>
      <trkpt lat="46.68253" lon="-1.92142">
        <ele>7</ele>
        <time>2018-04-28T08:45:18Z</time>
      </trkpt>
      <trkpt lat="46.68304" lon="-1.92221">
        <ele>9</ele>
        <time>2018-04-28T08:46:18Z</time>
      </trkpt>
      <trkpt lat="46.68387" lon="-1.92365">
        <ele>10</ele>
        <time>2018-04-28T08:47:18Z</time>
      </trkpt>
      <trkpt lat="46.68401" lon="-1.92386">
        <ele>10</ele>
        <time>2018-04-28T08:48:18Z</time>
      </trkpt>
      <trkpt lat="46.68415" lon="-1.92395">
        <ele>10</ele>
        <time>2018-04-28T08:49:18Z</time>
      </trkpt>
      <trkpt lat="46.68452" lon="-1.92402">
        <ele>10</ele>
        <time>2018-04-28T08:50:18Z</time>
      </trkpt>
      <trkpt lat="46.68477" lon="-1.92411">
        <ele>10</ele>
        <time>2018-04-28T08:51:18Z</time>
      </trkpt>
      <trkpt lat="46.68495" lon="-1.92421">
        <ele>10</ele>
        <time>2018-04-28T08:52:18Z</time>
      </trkpt>
      <trkpt lat="46.68533" lon="-1.92462">
        <ele>10</ele>
        <time>2018-04-28T08:53:18Z</time>
      </trkpt>
      <trkpt lat="46.68626" lon="-1.92579">
        <ele>10</ele>
        <time>2018-04-28T08:54:18Z</time>
      </trkpt>
      <trkpt lat="46.68666" lon="-1.92613">
        <ele>10</ele>
        <time>2018-04-28T08:55:18Z</time>
      </trkpt>
      <trkpt lat="46.68733" lon="-1.92655">
        <ele>8</ele>
        <time>2018-04-28T08:56:18Z</time>
      </trkpt>
      <trkpt lat="46.68774" lon="-1.92675">
        <ele>8</ele>
        <time>2018-04-28T08:57:18Z</time>
      </trkpt>
      <trkpt lat="46.68817" lon="-1.92693">
        <ele>7</ele>
        <time>2018-04-28T08:58:18Z</time>
      </trkpt>
      <trkpt lat="46.68818" lon="-1.9269">
        <ele>7</ele>
        <time>2018-04-28T08:59:18Z</time>
      </trkpt>
      <trkpt lat="46.68824" lon="-1.92688">
        <ele>7</ele>
        <time>2018-04-28T09:00:18Z</time>
      </trkpt>
      <trkpt lat="46.68839" lon="-1.92689">
        <ele>7</ele>
        <time>2018-04-28T09:01:18Z</time>
      </trkpt>
      <trkpt lat="46.6884" lon="-1.92686">
        <ele>7</ele>
        <time>2018-04-28T09:02:18Z</time>
      </trkpt>
      <trkpt lat="46.68847" lon="-1.92683">
        <ele>6</ele>
        <time>2018-04-28T09:03:18Z</time>
      </trkpt>
      <trkpt lat="46.68852" lon="-1.92689">
        <ele>6</ele>
        <time>2018-04-28T09:04:18Z</time>
      </trkpt>
      <trkpt lat="46.68851" lon="-1.92699">
        <ele>6</ele>
        <time>2018-04-28T09:05:18Z</time>
      </trkpt>
      <trkpt lat="46.68924" lon="-1.92732">
        <ele>4</ele>
        <time>2018-04-28T09:06:18Z</time>
      </trkpt>
      <trkpt lat="46.68951" lon="-1.92754">
        <ele>4</ele>
        <time>2018-04-28T09:07:18Z</time>
      </trkpt>
      <trkpt lat="46.69068" lon="-1.92911">
        <ele>4</ele>
        <time>2018-04-28T09:08:18Z</time>
      </trkpt>
      <trkpt lat="46.69119" lon="-1.92964">
        <ele>4</ele>
        <time>2018-04-28T09:09:18Z</time>
      </trkpt>
      <trkpt lat="46.69303" lon="-1.93129">
        <ele>5</ele>
        <time>2018-04-28T09:10:18Z</time>
      </trkpt>
      <trkpt lat="46.69318" lon="-1.93147">
        <ele>5</ele>
        <time>2018-04-28T09:11:18Z</time>
      </trkpt>
      <trkpt lat="46.69335" lon="-1.93175">
        <ele>5</ele>
        <time>2018-04-28T09:12:18Z</time>
      </trkpt>
      <trkpt lat="46.69346" lon="-1.93199">
        <ele>5</ele>
        <time>2018-04-28T09:13:18Z</time>
      </trkpt>
      <trkpt lat="46.69368" lon="-1.93269">
        <ele>4</ele>
        <time>2018-04-28T09:14:18Z</time>
      </trkpt>
      <trkpt lat="46.69374" lon="-1.93297">
        <ele>4</ele>
        <time>2018-04-28T09:15:18Z</time>
      </trkpt>
      <trkpt lat="46.69379" lon="-1.93308">
        <ele>4</ele>
        <time>2018-04-28T09:16:18Z</time>
      </trkpt>
      <trkpt lat="46.69385" lon="-1.93317">
        <ele>4</ele>
        <time>2018-04-28T09:17:18Z</time>
      </trkpt>
      <trkpt lat="46.69391" lon="-1.93319">
        <ele>4</ele>
        <time>2018-04-28T09:18:18Z</time>
      </trkpt>
      <trkpt lat="46.69394" lon="-1.93327">
        <ele>4</ele>
        <time>2018-04-28T09:19:18Z</time>
      </trkpt>
      <trkpt lat="46.69393" lon="-1.93333">
        <ele>4</ele>
        <time>2018-04-28T09:20:18Z</time>
      </trkpt>
      <trkpt lat="46.6939" lon="-1.93338">
        <ele>4</ele>
        <time>2018-04-28T09:21:18Z</time>
      </trkpt>
      <trkpt lat="46.69384" lon="-1.93339">
        <ele>4</ele>
        <time>2018-04-28T09:22:18Z</time>
      </trkpt>
      <trkpt lat="46.69383" lon="-1.93352">
        <ele>4</ele>
        <time>2018-04-28T09:23:18Z</time>
      </trkpt>
      <trkpt lat="46.6939" lon="-1.93352">
        <ele>4</ele>
        <time>2018-04-28T09:24:18Z</time>
      </trkpt>
      <trkpt lat="46.69395" lon="-1.93344">
        <ele>4</ele>
        <time>2018-04-28T09:25:18Z</time>
      </trkpt>
      <trkpt lat="46.69401" lon="-1.93341">
        <ele>4</ele>
        <time>2018-04-28T09:26:18Z</time>
      </trkpt>
      <trkpt lat="46.69413" lon="-1.93343">
        <ele>4</ele>
        <time>2018-04-28T09:27:18Z</time>
      </trkpt>
      <trkpt lat="46.69517" lon="-1.93383">
        <ele>4</ele>
        <time>2018-04-28T09:28:18Z</time>
      </trkpt>
      <trkpt lat="46.69525" lon="-1.9339">
        <ele>4</ele>
        <time>2018-04-28T09:29:18Z</time>
      </trkpt>
      <trkpt lat="46.69579" lon="-1.93414">
        <ele>4</ele>
        <time>2018-04-28T09:30:18Z</time>
      </trkpt>
      <trkpt lat="46.69586" lon="-1.93414">
        <ele>4</ele>
        <time>2018-04-28T09:31:18Z</time>
      </trkpt>
      <trkpt lat="46.69605" lon="-1.93424">
        <ele>4</ele>
        <time>2018-04-28T09:32:18Z</time>
      </trkpt>
      <trkpt lat="46.69607" lon="-1.93417">
        <ele>4</ele>
        <time>2018-04-28T09:33:18Z</time>
      </trkpt>
      <trkpt lat="46.69617" lon="-1.93422">
        <ele>4</ele>
        <time>2018-04-28T09:34:18Z</time>
      </trkpt>
      <trkpt lat="46.69619" lon="-1.93416">
        <ele>4</ele>
        <time>2018-04-28T09:35:18Z</time>
      </trkpt>
      <trkpt lat="46.69624" lon="-1.93414">
        <ele>5</ele>
        <time>2018-04-28T09:36:18Z</time>
      </trkpt>
      <trkpt lat="46.69627" lon="-1.93415">
        <ele>5</ele>
        <time>2018-04-28T09:37:18Z</time>
      </trkpt>
      <trkpt lat="46.69631" lon="-1.93425">
        <ele>4</ele>
        <time>2018-04-28T09:38:18Z</time>
      </trkpt>
      <trkpt lat="46.69667" lon="-1.93431">
        <ele>5</ele>
        <time>2018-04-28T09:39:18Z</time>
      </trkpt>
      <trkpt lat="46.69684" lon="-1.93436">
        <ele>5</ele>
        <time>2018-04-28T09:40:18Z</time>
      </trkpt>
      <trkpt lat="46.69709" lon="-1.93437">
        <ele>5</ele>
        <time>2018-04-28T09:41:18Z</time>
      </trkpt>
      <trkpt lat="46.69768" lon="-1.93423">
        <ele>5</ele>
        <time>2018-04-28T09:42:18Z</time>
      </trkpt>
      <trkpt lat="46.69768" lon="-1.93423">
        <ele>5</ele>
        <time>2018-04-28T09:43:18Z</time>
      </trkpt>
      <trkpt lat="46.69777" lon="-1.93421">
        <ele>5</ele>
        <time>2018-04-28T09:44:18Z</time>
      </trkpt>
      <trkpt lat="46.69784" lon="-1.93422">
        <ele>5</ele>
        <time>2018-04-28T09:45:18Z</time>
      </trkpt>
      <trkpt lat="46.69787" lon="-1.93417">
        <ele>5</ele>
        <time>2018-04-28T09:46:18Z</time>
      </trkpt>
      <trkpt lat="46.69791" lon="-1.93418">
        <ele>5</ele>
        <time>2018-04-28T09:47:18Z</time>
      </trkpt>
      <trkpt lat="46.69793" lon="-1.9342">
        <ele>5</ele>
        <time>2018-04-28T09:48:18Z</time>
      </trkpt>
      <trkpt lat="46.69813" lon="-1.9341">
        <ele>5</ele>
        <time>2018-04-28T09:49:18Z</time>
      </trkpt>
      <trkpt lat="46.69885" lon="-1.93386">
        <ele>5</ele>
        <time>2018-04-28T09:50:18Z</time>
      </trkpt>
    </trkseg>
  </trk>
</gpx>